GEFSNE_500_meanwind_024.txt.gz
Wind_Speed
75 78 79 80 81 82 84 85 86 84 82 79 77 75 73 71 68 65 63 61 61 60 60 61 60 60 59 57 57 56 56 55 55 54 53 52 52 50
62 64 66 66 68 71 74 77 81 83 83 80 78 76 75 72 70 67 66 64 64 64 63 63 62 62 61 60 59 59 59 58 58 57 56 56 55 54
49 53 55 55 56 58 61 64 69 74 78 78 77 76 76 75 74 72 71 69 69 68 67 67 67 67 66 65 63 62 61 61 60 60 60 59 59 59
41 46 49 50 52 54 56 58 59 63 67 70 72 73 73 74 74 74 73 73 73 72 72 72 71 71 71 70 69 67 66 65 65 64 64 64 64 63
38 42 47 48 49 50 53 55 55 55 58 61 64 67 69 71 72 73 73 73 74 74 74 74 74 73 73 73 72 71 71 70 69 68 67 66 66 65
39 43 45 47 47 47 49 50 51 52 52 54 57 60 62 64 66 68 69 70 71 72 72 72 72 72 71 71 71 72 71 70 70 69 68 67 66 66
37 41 44 46 46 47 47 47 49 50 51 51 53 55 57 59 61 62 64 65 66 67 68 68 68 69 69 68 67 67 67 67 67 67 66 66 66 65
36 38 42 45 45 46 46 47 48 49 50 51 52 53 53 54 56 58 59 61 62 62 64 65 65 65 64 64 64 64 64 64 64 64 64 64 65 65
38 38 39 42 44 45 45 46 47 48 49 51 52 52 52 52 53 54 55 58 59 60 62 62 63 63 63 62 62 62 62 62 62 62 62 63 63 64
38 39 39 40 42 44 45 46 46 47 48 50 51 52 53 52 52 52 53 54 55 56 57 57 57 58 58 59 59 59 60 60 60 61 61 62 62 62
39 39 39 39 41 43 45 46 47 47 48 49 49 51 51 52 52 52 53 53 53 53 53 53 53 53 54 55 56 57 57 58 59 59 60 61 61 61
39 40 40 40 41 43 46 47 48 48 48 49 49 49 50 50 50 51 51 51 51 51 51 51 51 51 52 52 53 54 56 57 58 58 59 59 58 58
39 40 41 42 43 44 46 48 48 48 49 50 50 49 49 50 49 49 49 49 49 49 48 49 49 50 51 51 52 53 53 54 55 56 56 55 55 55
41 41 42 43 43 44 46 47 48 49 49 50 50 49 49 49 49 49 49 48 48 48 47 48 49 49 50 50 51 51 52 51 51 51 51 51 50 50
43 43 43 44 44 45 45 46 48 49 49 49 49 49 49 49 48 48 48 47 47 47 47 47 49 49 49 49 49 50 50 49 48 47 46 46 45 45
46 46 45 45 46 46 46 46 47 48 49 49 49 49 48 48 47 47 47 47 46 46 46 47 48 49 49 48 48 48 47 46 45 44 43 42 42 42
48 48 48 47 47 47 48 48 48 48 49 49 49 48 48 47 47 46 46 45 45 45 45 45 46 46 46 46 46 45 45 44 43 41 41 40 40 40
48 49 50 49 49 49 49 49 49 48 48 49 49 49 48 48 47 46 45 44 44 44 44 43 43 43 43 42 42 43 43 42 40 39 39 39 38 38
43 48 50 51 51 51 51 51 51 50 49 49 49 49 48 48 47 46 45 44 43 43 43 43 42 41 41 41 41 41 41 40 40 39 38 37 37 37
33 40 47 51 53 53 53 53 54 53 52 52 51 50 49 49 48 47 46 44 44 43 42 42 42 42 41 41 42 42 41 41 40 39 38 37 36 36
24 30 37 45 51 54 55 56 56 56 55 55 54 53 52 50 49 48 47 46 45 44 43 43 42 42 41 42 42 42 41 41 40 39 37 36 35 34
20 23 28 34 42 50 55 57 58 58 58 58 58 57 56 54 52 51 49 48 46 45 44 43 42 42 42 42 42 42 41 40 40 38 37 35 34 33
19 21 23 27 32 40 48 54 58 60 61 61 61 60 60 59 57 56 53 51 50 48 47 45 44 43 43 43 43 43 42 40 39 38 37 36 34 33

GEFSNE_500_meanwind_030.txt.gz
Wind_Speed
58 66 73 80 85 89 91 92 92 91 89 85 83 80 79 78 77 76 75 73 71 70 69 67 65 64 63 62 60 58 56 54 54 53 52 51 50 49
47 52 58 65 72 80 86 90 93 93 92 90 87 84 82 81 80 78 77 76 74 73 71 70 68 67 66 65 63 61 59 58 57 56 55 54 53 52
42 45 48 52 58 65 72 80 87 91 93 92 92 89 86 84 82 80 79 77 76 75 73 71 70 68 67 65 63 62 61 60 59 58 57 57 56 55
42 43 45 48 51 55 60 66 73 80 86 88 91 91 89 87 85 83 81 79 78 76 74 73 71 70 69 67 66 65 63 62 61 60 59 59 58 58
41 42 43 44 47 50 53 57 61 66 71 77 82 85 87 87 86 85 84 83 81 78 76 74 73 72 71 70 69 68 66 64 63 62 62 62 61 61
41 41 41 41 42 44 47 50 53 57 60 64 69 73 77 79 81 82 84 84 83 82 79 77 76 74 73 72 71 71 70 69 68 67 66 65 65 64
41 41 40 39 39 40 42 44 46 50 53 54 56 60 64 67 70 73 76 78 79 79 78 78 77 75 75 74 73 72 72 73 72 71 71 69 68 68
42 41 40 39 38 40 41 42 43 46 48 50 52 53 55 59 61 64 67 69 73 76 76 76 76 77 76 75 75 74 73 73 73 73 73 73 73 73
43 43 42 40 39 40 40 42 43 45 47 48 51 52 54 56 58 59 61 65 68 72 74 75 77 77 77 78 78 78 77 77 77 77 77 77 77 76
44 44 44 43 41 40 41 42 43 45 47 48 50 53 55 57 58 59 60 60 61 66 72 75 78 79 81 81 81 81 81 80 81 81 80 79 78 77
45 45 46 45 44 43 42 43 44 46 48 50 51 51 52 54 55 58 60 60 60 61 65 69 73 76 78 79 80 81 81 81 82 83 80 77 77 77
45 46 47 47 46 46 45 44 45 46 47 48 50 51 51 52 54 57 58 58 57 58 60 60 63 67 69 72 73 74 75 75 76 76 74 72 72 73
45 47 48 48 48 48 47 46 46 46 47 48 50 51 50 51 53 54 56 56 55 56 57 58 58 60 61 63 65 65 66 65 66 67 68 68 69 70
43 46 48 49 49 48 48 47 46 46 46 47 49 50 51 52 53 54 55 55 55 55 55 56 56 56 56 56 57 58 59 60 62 63 64 66 66 67
41 45 47 48 48 48 49 48 48 47 47 47 49 50 51 52 53 54 54 55 55 55 55 55 54 54 54 54 54 54 54 54 56 58 59 60 61 63
38 42 45 47 48 48 48 49 49 49 48 48 49 50 51 51 52 53 54 54 55 55 56 56 56 56 55 55 55 54 54 53 53 54 55 56 57 58
33 39 43 45 47 48 48 48 49 50 50 50 50 51 52 52 53 54 53 53 53 54 54 54 54 55 56 55 55 54 53 52 52 52 53 53 54 55
26 33 39 43 45 47 48 48 48 49 50 51 51 52 52 53 54 54 54 54 54 53 53 53 54 53 53 53 53 52 52 51 51 51 51 52 52 52
20 26 33 40 44 46 47 48 48 49 49 50 50 51 52 53 54 54 55 55 55 54 53 53 52 52 52 52 51 51 50 49 49 49 49 50 50 51
15 19 25 33 40 44 46 47 48 49 49 49 50 50 51 52 53 54 54 54 55 54 53 52 52 51 51 50 49 49 48 47 47 47 47 47 47 48
11 14 18 24 32 40 45 47 48 49 49 49 49 49 50 50 51 52 53 53 54 53 53 52 51 50 49 48 48 47 45 45 44 44 44 44 44 45
9 11 14 18 24 32 40 45 48 49 49 49 50 49 50 50 50 50 51 52 52 52 51 51 50 49 48 47 46 45 43 42 41 41 40 40 40 40
8 9 12 15 19 24 32 40 45 49 50 50 50 50 50 50 50 50 50 50 51 51 50 49 49 48 46 45 44 43 41 40 39 38 37 36 37 37

GEFSNE_500_meanwind_036.txt.gz
Wind_Speed
43 43 45 52 63 74 83 88 90 89 88 86 84 82 80 77 75 75 73 72 71 70 69 67 64 61 59 56 54 52 50 49 48 49 49 49 48 47
43 42 42 46 53 63 74 82 87 90 89 87 86 84 83 80 77 76 75 74 73 72 71 69 66 64 61 59 57 55 53 51 50 49 50 50 50 49
45 43 42 43 46 53 63 72 80 86 89 88 87 86 85 83 80 77 76 75 74 73 71 70 69 66 64 62 60 58 56 55 53 52 51 51 51 51
45 45 43 43 44 47 54 62 70 79 85 87 86 86 86 85 83 81 78 76 75 74 72 71 69 67 66 64 62 61 59 58 56 55 55 54 53 52
44 45 45 44 43 45 48 54 61 69 77 83 84 85 86 86 85 84 82 80 77 76 74 72 70 68 66 65 64 63 61 60 59 58 58 57 56 55
43 45 46 45 44 44 45 48 53 58 66 74 78 81 83 84 86 85 84 83 81 79 77 74 72 69 67 66 65 64 63 62 61 61 60 59 58 57
40 44 46 46 45 44 44 45 47 50 56 62 68 73 78 81 84 84 83 83 83 82 80 78 74 72 70 68 66 65 64 64 63 62 62 61 60 59
38 42 45 46 45 44 43 43 44 46 49 53 58 63 69 75 79 80 81 83 83 83 81 79 77 75 72 70 68 67 66 65 64 63 63 62 61 60
35 40 44 45 45 44 43 43 42 43 44 47 51 55 59 65 71 75 78 79 80 80 81 80 79 76 74 72 70 69 68 67 66 65 65 64 63 61
33 37 42 44 44 44 43 42 41 41 41 42 44 47 51 55 60 64 68 72 74 76 78 77 78 77 76 73 72 70 69 68 67 67 66 65 65 64
30 34 39 43 44 44 43 42 40 40 39 39 40 42 45 48 52 55 59 62 65 69 72 72 73 73 74 74 73 72 71 69 69 69 68 68 67 67
27 32 37 41 44 44 43 42 41 39 38 38 38 39 41 44 47 50 52 55 58 61 63 65 67 69 71 72 70 69 69 69 70 70 69 69 68 69
25 29 34 39 43 44 44 44 42 40 39 38 38 38 40 42 45 47 48 50 55 57 57 60 62 64 65 67 68 68 68 69 69 70 70 70 71 71
22 26 31 36 41 44 45 45 43 41 40 39 39 39 40 41 43 45 47 48 51 54 55 56 57 57 59 62 65 67 69 70 71 71 72 73 74 74
18 23 28 33 39 42 45 46 45 44 42 41 40 40 41 42 43 44 46 48 49 51 53 55 54 55 57 59 62 65 67 69 71 72 73 74 75 76
14 19 24 30 36 40 44 46 47 46 44 42 42 41 42 43 43 44 46 46 47 50 52 52 53 53 53 55 58 60 62 63 65 66 67 67 68 68
11 15 21 27 33 38 42 45 46 47 46 45 44 43 43 44 44 44 46 47 47 49 50 51 50 51 51 50 52 53 54 54 55 56 56 56 58 57
7 12 17 23 29 35 40 43 46 47 47 46 45 45 45 45 45 45 45 46 47 47 47 48 49 49 48 48 48 47 46 46 46 45 45 45 46 45
5 9 13 19 25 32 37 41 44 46 47 47 46 46 45 46 46 46 45 46 47 47 46 45 45 46 47 46 45 45 43 43 42 42 41 41 41 41
7 6 10 15 21 28 34 39 43 45 47 47 47 46 46 47 47 47 47 47 48 48 48 47 46 46 45 44 44 45 44 43 42 41 41 41 41 41
13 8 6 10 16 23 30 36 40 43 46 47 48 47 47 47 47 48 48 48 48 49 49 49 49 48 47 46 46 45 45 44 42 41 42 42 42 42
25 15 8 7 11 17 24 31 37 41 44 46 48 48 48 48 48 48 49 49 49 49 50 50 50 50 49 49 48 47 46 46 45 44 43 43 43 42
36 29 19 10 7 11 17 25 32 39 43 45 47 48 49 49 49 49 50 50 49 49 49 50 51 51 51 50 50 49 48 47 46 45 44 43 42 42

GEFSNE_500_meanwind_042.txt.gz
Wind_Speed
43 48 54 59 62 62 61 61 65 75 87 95 97 98 97 94 90 87 83 78 74 73 72 73 72 69 67 64 61 58 56 52 49 49 51 53 55 55
40 44 49 55 60 61 61 60 61 67 78 89 94 95 97 95 91 88 85 81 77 75 74 73 72 70 68 66 63 61 58 54 52 50 50 53 55 57
38 41 45 51 56 60 60 59 59 61 70 81 89 93 93 93 91 89 86 83 80 76 74 74 73 71 69 67 65 63 60 57 54 52 51 52 54 57
37 39 42 46 52 56 58 58 57 57 62 73 84 90 90 90 90 89 87 85 82 80 76 74 73 71 70 68 67 64 62 59 56 53 52 50 51 55
36 37 39 43 48 52 55 56 55 55 56 64 77 86 88 87 88 88 88 87 85 81 79 76 74 72 71 69 68 66 63 61 58 56 53 51 50 51
35 35 36 39 44 48 52 53 53 52 52 56 68 81 87 87 86 87 88 88 86 84 81 79 76 74 72 70 68 66 65 62 60 57 55 53 50 49
33 33 34 36 41 45 48 50 50 50 49 51 58 72 85 89 87 85 86 87 87 86 83 81 78 75 73 71 69 67 66 64 61 59 57 55 53 51
30 31 32 34 37 41 45 47 48 47 47 47 50 61 76 88 90 87 85 86 86 85 84 82 80 77 74 72 70 68 66 65 63 61 59 57 55 53
25 27 29 31 34 38 42 44 45 45 45 44 45 52 66 81 88 87 86 86 86 85 85 84 82 79 76 73 71 69 67 66 64 62 61 59 58 56
22 24 26 29 31 35 39 42 43 43 42 42 42 45 55 69 81 87 87 86 85 85 84 84 83 80 77 75 72 70 68 66 65 63 62 61 60 59
18 21 23 26 29 33 37 39 40 40 40 39 39 41 46 56 70 79 85 86 85 84 84 82 82 81 78 76 74 71 69 67 65 64 63 62 61 60
14 17 20 23 27 31 35 37 38 39 38 37 37 39 41 48 58 69 77 83 84 83 82 81 80 81 79 77 74 72 69 68 66 64 63 62 61 60
10 14 18 21 25 29 33 35 37 37 36 36 36 37 38 42 49 57 66 74 78 80 81 79 78 78 78 77 75 73 71 68 67 66 64 62 61 60
8 12 16 20 24 28 32 34 36 36 35 34 34 35 36 39 43 50 56 63 69 73 76 77 76 75 74 75 73 71 70 68 67 66 64 63 62 61
4 9 13 18 23 26 31 34 35 35 34 33 33 33 34 36 40 45 50 55 61 65 68 70 71 70 70 70 70 69 67 66 66 65 63 63 62 62
1 5 10 16 21 25 29 33 35 35 34 33 33 33 33 34 37 40 45 50 54 59 61 64 65 65 65 66 66 65 64 62 61 61 61 62 62 61
6 2 7 12 18 24 28 32 35 36 35 34 33 33 34 34 35 37 40 45 48 53 57 60 61 62 61 61 61 62 61 61 60 59 59 59 60 61
13 5 3 9 15 21 26 30 34 36 36 35 34 34 34 35 35 36 38 41 43 47 52 57 60 61 61 60 59 59 59 60 60 60 61 61 61 61
22 13 5 4 11 18 24 29 33 35 37 37 36 35 35 35 36 37 38 40 41 43 47 53 56 58 59 59 60 60 59 59 60 61 61 61 61 62
32 23 13 4 5 13 20 26 31 35 37 38 38 38 37 37 37 38 38 39 41 42 45 49 52 55 57 56 57 57 58 57 57 58 59 59 60 60
37 32 23 12 4 6 14 22 28 33 36 39 40 40 39 38 38 39 40 40 41 41 44 47 49 52 53 54 54 54 54 55 55 54 55 55 56 55
39 36 30 23 13 3 7 16 23 30 35 38 40 41 41 41 40 40 41 41 42 42 44 46 48 49 50 51 51 51 51 51 51 50 50 50 49 47
40 37 34 29 21 12 3 9 17 25 31 37 40 42 43 43 43 42 43 42 42 43 44 46 47 48 50 50 50 50 50 49 48 47 46 45 45 44

GEFSNE_500_meanwind_048.txt.gz
Wind_Speed
46 45 43 41 41 43 49 55 62 66 70 72 77 85 92 97 100 99 97 94 91 88 85 82 81 79 77 73 70 63 58 55 57 57 55 53 52 48
42 43 42 41 40 41 45 52 58 64 67 70 73 79 87 94 99 99 96 95 92 89 86 84 81 78 78 76 73 67 64 56 54 55 53 51 51 50
36 39 40 39 39 40 42 48 55 61 64 67 70 74 82 90 96 99 98 95 92 90 88 85 82 80 78 76 74 70 66 61 56 55 52 52 49 48
29 34 36 37 37 38 39 44 51 57 62 64 67 70 76 85 92 96 97 94 93 91 88 85 82 79 78 77 74 72 70 66 61 56 52 51 50 50
21 27 31 33 33 35 37 41 47 54 59 62 65 67 71 78 85 91 96 95 94 91 88 85 82 78 76 76 74 72 71 67 64 60 56 53 51 48
15 20 25 29 30 32 34 38 43 50 56 60 62 65 67 72 79 86 92 94 93 92 88 85 82 79 76 75 73 73 72 71 66 63 59 56 52 48
11 15 20 24 27 29 31 34 39 46 52 57 60 62 64 66 73 81 87 91 92 92 89 86 82 78 75 73 73 72 72 71 70 67 62 57 54 51
8 12 16 20 24 26 28 31 36 42 48 54 58 60 61 63 67 74 82 87 90 91 88 85 83 81 77 74 73 71 69 69 68 67 65 61 56 52
5 9 13 17 20 23 25 28 33 38 45 51 55 58 60 60 61 67 75 81 87 89 88 84 82 81 78 76 73 71 69 68 67 67 65 62 59 54
2 6 10 13 17 20 22 25 30 35 41 46 51 54 57 58 57 62 68 73 80 85 87 84 82 80 78 78 75 71 69 68 68 67 66 64 62 57
3 2 7 11 14 18 20 23 28 32 37 43 47 50 53 55 56 57 62 68 74 81 83 83 81 80 78 77 76 73 70 69 67 67 66 65 64 61
6 1 4 8 12 16 18 21 26 30 35 40 44 47 49 52 53 54 57 64 69 75 80 81 80 79 78 78 76 75 73 71 69 67 66 65 64 62
7 3 2 6 10 14 17 20 24 29 33 37 41 44 46 48 50 52 53 58 64 69 76 80 81 79 77 77 77 76 74 72 70 69 67 65 64 62
11 5 1 5 8 12 16 19 23 28 32 35 39 41 43 45 47 49 51 53 61 66 71 76 80 80 78 77 77 76 74 72 71 69 68 66 65 63
18 10 4 3 6 10 14 18 22 26 30 33 36 39 41 42 43 45 48 51 58 65 70 73 76 77 77 76 76 76 76 73 72 70 68 67 65 63
25 16 9 3 4 8 13 17 21 25 29 32 34 36 38 39 40 41 43 48 54 62 69 72 73 74 74 74 76 77 77 76 73 71 69 66 64 63
32 24 15 7 2 6 11 16 20 24 28 30 32 34 35 36 37 37 39 42 49 57 65 71 72 73 73 74 74 75 76 76 75 73 70 68 66 64
36 30 22 13 5 2 9 15 20 23 27 29 30 32 33 34 34 35 36 39 44 51 58 65 69 71 71 72 73 73 74 74 74 73 71 68 66 65
39 34 27 20 11 3 5 12 18 22 25 28 29 31 32 32 32 32 34 36 39 45 52 58 63 66 68 68 69 70 70 72 72 72 71 69 67 65
41 37 31 24 17 8 1 8 15 21 24 27 29 30 31 31 31 31 32 33 36 41 46 53 57 61 64 64 64 65 67 67 69 69 69 68 67 66
41 39 35 29 21 14 4 4 12 18 23 26 28 30 30 30 30 31 31 32 34 37 42 49 54 56 59 61 61 61 62 64 64 65 66 66 65 64
40 39 38 33 26 18 10 1 8 15 21 25 28 29 30 31 31 31 31 32 33 35 38 44 50 54 57 59 59 58 59 60 62 61 61 61 60 59
39 39 38 36 31 23 15 7 3 11 18 24 28 30 31 31 32 32 32 32 33 34 35 39 44 49 53 56 57 56 56 56 57 58 57 56 56 56

GEFSNE_500_meanwind_054.txt.gz
Wind_Speed
15 16 24 33 40 45 46 46 46 48 52 58 67 75 83 92 102 110 114 115 113 110 107 103 99 95 91 87 83 78 73 71 69 65 64 63 60 59
12 10 17 25 33 39 43 44 44 45 48 54 61 69 76 84 93 103 110 113 113 111 109 105 101 97 94 90 87 82 76 71 68 66 66 65 63 61
10 5 10 18 26 33 38 40 42 42 44 50 56 63 69 77 86 95 103 109 111 111 110 107 103 100 96 93 89 84 80 75 70 69 66 63 62 62
9 3 6 13 19 26 32 36 38 40 41 46 52 58 64 71 78 87 96 103 108 110 110 108 105 101 98 95 92 87 82 78 72 68 67 64 64 63
9 2 4 9 15 22 27 31 34 37 39 42 48 53 59 65 72 80 88 97 103 107 109 108 106 102 100 96 93 91 86 82 76 68 66 63 61 62
10 4 3 8 13 18 23 27 31 33 36 40 44 50 55 61 66 73 81 91 97 103 106 107 106 103 100 97 93 91 89 85 79 73 67 63 59 58
11 5 2 6 11 15 20 24 27 30 33 37 42 46 52 57 62 68 76 84 92 98 103 105 104 102 99 96 94 91 89 86 81 75 70 65 59 56
12 7 3 5 9 13 17 21 24 27 30 35 39 44 49 54 58 64 71 80 87 94 99 102 102 100 98 94 93 91 89 85 82 79 73 68 63 58
14 8 4 4 7 11 15 19 21 24 27 32 37 41 46 52 55 60 66 74 82 89 94 98 100 99 97 93 91 89 88 85 82 79 75 71 65 61
17 10 6 3 6 9 13 17 20 22 26 30 35 39 44 49 53 57 62 68 77 84 90 93 96 94 93 90 88 86 84 83 80 78 75 71 67 60
21 14 8 4 4 7 11 15 17 21 24 29 33 38 42 47 51 54 58 64 72 78 84 89 91 91 88 87 86 83 80 81 79 76 73 70 67 61
25 18 11 6 3 5 9 13 15 19 23 27 32 36 41 45 49 52 55 60 67 74 79 85 87 87 84 82 81 81 79 78 77 75 71 68 65 61
30 22 15 8 4 3 7 10 14 17 21 26 30 35 40 44 47 50 52 56 61 68 74 79 83 84 82 80 78 78 78 77 76 73 71 67 65 63
34 27 18 11 5 2 5 9 13 16 20 24 29 33 38 43 45 48 50 52 56 62 70 75 80 82 80 78 77 76 74 74 73 72 70 68 66 63
36 30 23 15 8 2 4 8 12 15 19 23 28 32 37 41 44 47 48 50 53 57 64 72 74 77 78 76 75 75 73 73 72 70 69 67 65 63
38 33 27 19 11 5 1 6 10 14 19 23 27 31 36 40 43 45 47 48 50 54 60 66 69 73 75 74 73 73 73 72 72 70 68 65 63 61
39 35 30 23 15 8 2 4 9 13 18 22 26 30 35 39 41 44 46 47 48 51 54 60 64 68 71 73 71 70 70 70 70 69 68 66 65 64
41 36 32 26 19 12 5 2 7 12 16 21 25 29 33 37 40 42 44 46 47 49 51 55 60 64 67 69 70 68 68 67 68 68 67 67 65 63
41 38 33 28 22 15 8 1 6 11 15 19 23 28 32 36 39 41 43 45 46 48 49 52 55 60 63 64 68 69 68 67 67 68 68 67 65 63
40 39 35 29 24 18 11 3 4 10 14 18 22 27 31 34 37 40 42 44 46 47 48 50 52 56 60 62 64 66 67 66 66 66 67 68 66 64
38 38 37 32 26 20 14 7 2 8 13 17 21 25 29 33 36 38 41 43 44 46 48 49 50 53 56 60 61 62 64 66 66 65 65 66 66 64
36 37 37 35 30 23 16 9 2 6 12 16 21 25 28 32 34 37 39 40 42 44 46 48 49 51 55 58 59 61 62 65 67 66 65 64 63 62
35 36 36 36 33 27 19 12 4 4 10 16 20 24 27 30 33 35 37 38 40 42 44 47 49 51 53 57 59 59 60 62 64 65 64 64 63 63

GEFSNE_500_meanwind_060.txt.gz
Wind_Speed
39 34 29 24 18 12 10 15 25 35 44 50 54 56 60 66 75 85 96 107 116 120 121 118 114 111 107 102 98 94 90 85 80 75 72 69 67 65
38 32 27 22 16 10 8 12 20 29 37 45 48 51 54 58 66 75 85 98 109 117 120 120 117 113 109 105 101 97 93 89 83 77 73 71 68 66
37 32 25 20 14 9 7 9 16 24 32 39 43 45 48 52 58 66 76 87 100 110 118 119 118 115 112 108 104 100 95 92 86 80 75 71 68 66
38 32 25 18 13 10 7 8 13 20 27 33 37 40 43 46 52 58 67 78 90 102 112 117 118 116 114 110 106 102 98 94 90 84 76 72 70 68
38 32 26 19 13 9 7 8 11 17 23 28 32 36 38 41 45 52 60 70 82 93 104 113 117 117 115 112 109 105 101 97 92 87 82 75 70 69
40 33 27 20 14 10 8 8 11 15 20 25 29 32 34 37 40 46 54 63 74 85 96 107 114 116 115 113 110 107 103 99 95 91 86 80 73 69
41 35 28 22 16 11 9 9 11 15 19 22 26 29 31 33 36 41 49 57 67 78 89 100 109 113 114 114 112 109 105 101 97 93 89 83 75 70
42 36 29 23 18 13 10 10 11 14 18 21 23 26 28 30 32 37 44 52 61 72 82 92 103 109 112 113 112 109 106 102 98 95 91 87 80 72
42 38 31 24 19 14 11 10 10 13 16 19 22 24 26 28 30 34 41 48 56 65 75 84 96 103 108 111 111 110 107 104 100 96 93 88 83 76
43 39 33 25 20 15 11 8 9 11 14 17 20 22 24 26 28 32 37 44 51 59 69 77 89 97 103 107 109 109 108 105 100 97 94 88 84 79
43 40 34 27 20 15 11 8 7 9 12 15 18 20 22 24 27 30 35 42 49 56 64 72 81 90 98 102 105 107 107 104 100 97 93 89 84 81
43 41 36 30 23 16 12 8 6 7 10 13 16 18 20 23 26 29 33 40 46 52 59 67 74 84 91 97 100 103 104 103 99 96 93 90 86 82
44 41 37 31 25 19 13 8 5 5 8 10 13 15 18 22 25 28 32 38 44 49 55 62 69 77 85 91 95 98 100 100 98 95 93 90 86 83
44 41 38 33 27 20 15 9 5 4 6 9 11 14 17 20 24 27 32 37 43 48 53 58 64 71 80 86 89 92 94 94 94 94 92 89 86 83
43 42 39 34 29 22 16 11 6 3 4 7 10 13 16 19 24 27 32 37 41 46 50 56 61 67 75 80 82 86 90 89 90 90 89 87 86 83
42 42 40 36 30 23 18 13 7 3 3 6 8 11 15 19 23 28 33 37 41 45 49 54 58 64 71 76 79 82 84 84 84 84 83 83 83 81
42 41 39 36 31 25 19 14 8 3 2 5 8 11 14 18 23 28 33 38 42 45 48 53 57 62 67 71 73 77 79 79 79 79 79 78 78 78
43 41 39 36 32 26 20 15 10 4 1 5 8 11 14 18 23 28 34 38 42 44 47 52 56 60 65 68 70 73 75 75 75 75 74 73 73 73
42 42 39 36 33 27 21 16 11 5 1 5 8 11 14 18 23 28 34 38 41 44 47 51 55 59 63 66 68 70 71 71 70 71 71 70 68 69
41 41 40 36 32 28 22 17 12 7 1 4 8 11 15 19 23 27 32 36 40 43 47 52 55 58 61 66 67 67 68 67 66 66 67 66 65 65
41 41 40 37 33 29 23 17 12 7 2 4 8 12 15 19 23 27 31 35 38 42 45 50 55 56 58 63 65 66 68 67 65 63 64 64 63 61
41 40 39 37 34 29 25 18 13 8 2 3 8 12 16 19 23 27 31 34 37 41 44 48 52 54 56 60 63 66 67 67 66 64 63 63 61 61
40 39 38 37 35 31 25 20 13 8 3 3 8 12 16 20 23 27 31 34 36 40 44 47 50 53 54 57 60 64 67 67 66 64 64 64 63 62

GEFSNE_500_meanwind_066.txt.gz
Wind_Speed
59 57 53 50 46 41 38 34 28 21 17 18 22 28 38 48 60 72 81 90 99 108 114 120 122 123 122 119 116 113 109 105 101 96 91 84 77 72
57 55 52 49 45 40 36 31 27 22 17 16 19 23 31 41 51 63 72 81 91 100 108 115 120 122 122 121 118 115 111 107 103 99 95 88 81 74
56 54 51 48 44 38 34 30 25 21 17 14 16 20 26 34 44 54 64 72 81 91 101 109 116 121 122 121 119 116 113 109 105 102 97 92 84 77
55 53 49 47 43 37 33 29 24 20 17 14 14 18 22 29 37 46 55 64 73 83 93 103 111 118 122 122 120 118 115 112 108 104 100 95 88 82
54 52 49 46 42 37 32 28 23 19 16 14 14 16 20 26 32 40 48 55 64 74 85 95 105 114 120 122 121 119 116 113 109 106 103 98 92 85
53 51 49 46 42 37 32 27 23 18 16 13 13 16 19 24 29 35 42 49 57 66 76 87 98 108 116 120 120 119 117 115 111 108 105 101 95 89
52 51 49 46 42 37 32 27 22 18 15 13 13 15 18 22 27 32 37 43 50 59 68 80 91 102 111 117 120 120 118 116 112 109 106 103 98 92
51 50 48 46 42 36 31 26 22 17 15 13 12 14 17 21 25 30 35 39 45 53 61 72 84 94 105 114 119 119 118 116 114 111 108 104 100 95
50 49 47 46 41 36 31 25 21 17 14 12 12 14 17 20 24 28 32 36 41 47 55 63 76 87 99 109 116 119 118 116 114 112 109 105 102 97
49 48 46 45 41 36 31 25 20 16 13 11 11 13 16 19 23 27 31 34 38 42 49 56 69 80 92 103 112 117 118 116 114 112 110 107 103 99
49 47 46 44 41 35 30 26 21 17 13 11 11 13 15 18 22 25 29 32 35 39 45 52 62 72 85 96 107 114 116 116 114 112 110 108 104 100
47 47 45 44 41 35 30 25 21 16 13 11 10 12 14 17 21 24 27 30 33 37 42 48 57 67 77 90 101 110 115 116 114 112 110 108 104 101
47 46 44 43 40 35 29 25 21 17 13 10 10 12 14 16 19 22 25 28 31 35 40 46 53 62 72 83 95 105 112 115 114 112 110 108 105 102
47 45 43 42 39 34 29 25 22 17 13 10 9 10 13 15 18 21 23 26 29 32 37 44 51 59 67 76 87 99 108 113 114 112 110 108 105 101
46 45 43 41 38 34 29 25 22 17 13 10 8 8 11 14 16 19 22 24 27 30 36 42 49 56 64 72 81 92 102 109 113 113 111 109 105 101
45 45 43 41 38 35 30 25 21 18 13 9 7 7 8 11 14 17 20 22 24 28 34 41 48 55 61 68 76 85 97 105 110 112 110 108 105 101
44 43 42 41 38 36 32 26 21 17 13 9 6 5 7 9 12 15 18 21 23 26 31 38 46 53 59 65 72 80 89 98 105 108 108 106 104 101
43 42 41 40 38 35 31 26 21 16 13 9 5 4 5 8 11 14 17 19 22 25 29 36 42 49 55 61 69 75 83 91 100 104 106 106 103 101
41 41 41 40 38 35 31 26 20 16 12 9 5 3 4 7 10 13 16 19 21 24 29 34 39 46 53 59 65 72 77 85 93 99 103 103 101 98
40 40 40 39 37 35 31 26 21 16 12 8 5 2 4 6 9 13 16 19 21 24 29 34 39 43 49 54 61 68 73 79 86 92 97 98 98 95
39 39 38 38 37 35 30 26 22 16 11 8 4 1 3 7 10 13 16 19 21 25 29 34 39 43 46 50 56 63 68 74 80 86 91 94 94 94
38 37 37 37 36 34 30 26 22 17 11 8 4 1 4 7 10 13 16 18 22 27 30 34 38 42 45 49 53 59 65 69 73 77 83 88 90 91
36 36 36 36 35 33 30 25 22 17 12 8 4 1 4 8 12 14 16 19 23 27 31 35 39 41 43 47 51 56 61 66 70 73 77 80 82 82

GEFSNE_500_meanwind_072.txt.gz
Wind_Speed
74 73 72 71 70 69 69 68 66 61 52 47 44 41 38 33 28 26 27 36 48 61 74 85 95 103 110 116 122 125 126 124 121 116 112 107 100 90
73 71 70 69 67 67 67 65 63 61 53 46 42 39 37 33 29 26 26 33 45 58 70 82 91 99 106 113 120 124 125 125 122 118 114 110 104 94
71 70 68 67 65 64 64 63 61 58 53 45 41 38 35 31 28 26 25 29 40 54 66 78 87 95 102 110 117 122 125 125 123 120 115 112 107 99
69 68 66 65 63 63 62 61 59 55 51 45 39 36 33 30 26 24 23 26 35 48 61 73 83 91 98 106 114 120 124 125 124 121 116 113 108 103
68 66 64 63 61 61 60 59 57 53 49 44 38 35 32 29 25 22 21 22 29 41 55 67 78 86 93 101 110 117 122 125 124 121 118 114 111 105
66 65 63 61 60 59 58 57 55 51 46 42 37 34 31 27 24 20 18 19 24 34 47 61 72 81 89 97 106 114 120 124 124 122 119 115 112 107
64 63 61 60 58 58 57 56 54 49 44 40 37 33 30 26 22 19 17 17 21 29 41 54 66 76 85 93 101 110 118 122 124 123 120 117 113 110
62 60 59 58 57 55 54 54 52 49 43 39 35 32 28 25 21 18 16 16 19 25 35 46 59 69 79 88 96 105 114 120 123 123 121 118 115 111
61 59 58 56 55 54 52 51 49 46 42 38 34 31 28 24 20 18 16 15 18 22 30 40 52 62 73 83 91 100 109 116 121 123 122 119 115 112
59 58 56 55 54 53 50 49 48 45 40 36 33 30 27 23 19 17 15 15 16 20 27 36 46 55 66 77 85 94 104 112 119 122 122 120 116 113
57 56 55 53 52 51 50 48 46 43 39 35 32 29 26 22 19 16 15 15 17 19 24 32 40 49 59 70 80 89 98 108 116 120 122 120 117 115
55 54 53 52 50 50 48 47 45 41 38 34 31 28 25 21 18 16 14 15 16 19 23 30 36 45 53 64 75 84 93 103 112 118 121 121 119 116
53 52 51 50 49 48 48 46 44 41 36 32 29 25 23 20 17 15 14 15 16 19 23 28 35 41 49 59 69 79 89 99 108 115 120 121 120 117
51 50 49 48 47 47 46 45 43 40 35 31 27 24 21 19 17 15 14 15 17 19 22 27 33 39 47 54 64 74 83 94 104 112 117 120 120 117
50 49 48 47 46 46 45 43 41 38 34 30 26 22 20 17 15 13 13 14 16 19 22 26 31 38 44 52 60 70 79 89 99 108 115 119 119 117
48 47 46 45 45 44 44 42 39 36 32 28 25 21 18 16 14 12 11 12 15 18 21 25 30 36 42 49 57 65 75 84 95 104 111 116 118 117
46 45 45 44 44 43 42 40 37 35 31 28 24 21 17 15 13 11 10 10 13 16 20 24 29 33 40 47 53 62 71 80 90 99 107 113 116 116
45 44 43 43 42 41 40 38 35 33 30 27 24 20 17 14 12 10 9 9 11 14 17 21 26 31 37 44 51 58 67 76 85 95 104 110 114 115
43 42 41 41 41 40 38 36 33 31 29 27 23 19 16 13 11 10 9 9 10 13 15 18 23 29 34 41 48 56 63 72 81 91 100 107 111 112
41 40 40 39 39 38 37 34 32 30 29 26 23 19 15 13 11 9 9 8 9 12 14 17 21 25 31 39 46 53 61 69 78 86 95 102 106 109
39 39 38 38 38 37 35 33 31 29 28 25 22 18 15 13 11 10 8 7 8 10 13 16 19 22 27 35 43 51 59 66 74 82 90 98 103 106
38 37 37 36 37 36 34 32 30 28 27 24 21 17 15 12 10 9 7 5 6 9 12 14 17 20 24 31 40 49 56 63 71 80 87 95 100 103
36 35 35 35 35 35 33 31 29 27 26 23 20 17 14 12 9 7 5 4 5 8 11 13 16 18 22 29 36 44 53 61 69 77 84 90 95 98

GEFSNE_500_meanwind_078.txt.gz
Wind_Speed
66 66 67 68 68 69 69 69 70 69 66 67 70 71 72 71 68 66 61 56 51 44 39 37 36 37 44 53 59 68 78 87 97 108 117 126 127 125
65 65 66 67 67 67 67 68 69 69 67 66 67 68 68 67 65 63 58 53 48 42 37 35 34 36 44 53 60 66 74 83 93 104 114 123 127 125
63 64 65 65 65 66 66 67 67 67 67 65 65 65 65 63 61 59 55 50 45 40 36 33 33 35 42 53 60 66 72 82 91 100 111 120 127 125
62 62 63 64 64 65 65 65 65 66 66 65 63 62 61 60 58 55 51 48 44 39 35 32 32 35 41 52 60 67 74 82 89 98 107 118 126 126
60 61 61 62 63 63 64 64 64 64 64 64 61 60 59 58 55 51 48 45 42 38 35 32 31 35 41 50 60 68 74 81 89 97 106 117 124 126
59 59 60 61 61 62 62 62 62 62 62 62 60 59 57 55 53 49 45 43 40 37 34 31 30 33 40 48 58 67 74 81 88 96 105 116 123 126
57 58 59 60 60 60 60 60 60 60 60 60 59 57 56 54 50 47 43 40 38 36 33 30 28 30 37 48 56 66 74 81 87 95 104 114 122 126
55 56 57 58 58 59 58 58 58 58 58 58 57 56 54 51 48 44 41 39 35 34 32 28 27 27 33 44 55 64 74 81 86 93 101 112 120 125
54 55 55 56 56 57 56 56 55 56 56 56 55 53 51 48 46 42 40 38 35 32 30 26 25 25 30 41 52 61 71 79 85 92 99 109 119 124
53 54 54 54 55 55 54 53 53 53 53 53 53 51 48 45 43 40 38 36 33 30 28 25 23 23 26 36 50 59 69 78 84 90 98 107 116 123
52 53 53 53 53 53 53 52 51 51 50 50 50 48 46 43 41 39 36 34 30 28 26 23 21 20 24 32 45 57 67 75 81 88 96 105 114 121
51 51 52 52 51 52 51 51 50 49 49 48 46 45 43 41 39 37 34 31 28 25 23 22 20 18 20 29 41 54 65 74 81 87 94 102 112 120
50 49 50 50 50 50 49 49 48 47 47 45 43 42 41 39 37 35 32 29 26 24 21 20 19 17 18 25 38 50 61 71 79 86 93 101 110 118
48 48 48 48 48 48 47 47 46 45 45 43 41 40 39 36 35 33 30 27 24 22 20 18 17 16 17 22 33 46 57 68 77 85 92 100 108 115
46 46 47 46 46 46 45 45 44 43 42 40 39 38 37 35 33 30 27 25 22 20 19 17 16 16 17 22 30 42 53 64 73 83 91 98 106 114
45 45 45 45 44 44 43 43 42 41 40 38 36 36 35 33 31 28 25 23 21 19 17 16 15 15 17 22 29 38 50 60 70 79 88 96 104 112
43 43 43 43 42 42 41 41 40 39 37 35 34 34 33 32 30 27 24 21 19 17 16 14 14 15 17 21 28 35 46 57 66 76 85 93 102 110
41 41 41 41 40 40 39 39 38 37 35 33 32 32 32 30 28 26 23 21 19 17 15 14 13 14 16 21 27 34 43 54 63 72 81 90 100 108
39 39 39 38 38 38 37 37 36 35 33 31 31 31 31 29 26 24 22 20 18 15 14 13 13 13 16 21 26 33 41 51 60 70 78 87 96 106
36 37 36 36 36 35 35 35 34 33 31 30 30 29 29 27 25 23 21 18 16 14 13 13 13 14 16 21 26 32 39 48 58 67 75 83 92 102
34 35 34 34 34 33 33 33 32 31 30 28 28 28 27 26 23 22 19 17 15 13 13 13 13 14 16 20 25 31 38 46 55 64 72 80 89 98
32 32 32 32 32 31 31 31 31 29 28 27 27 27 26 24 22 20 18 16 14 12 12 13 13 14 15 19 24 31 37 44 53 62 70 78 85 93
30 30 30 30 29 29 30 29 29 28 27 26 25 25 24 23 21 19 17 15 13 13 13 13 13 14 16 18 23 30 36 43 51 60 68 75 82 90

GEFSNE_500_meanwind_084.txt.gz
Wind_Speed
66 66 66 66 67 66 65 65 65 65 64 63 64 64 64 64 65 66 66 67 69 69 71 72 73 74 75 75 75 75 74 74 74 74 74 75 79 84
67 67 67 67 67 66 65 65 65 65 63 61 62 63 64 65 65 66 66 67 68 69 70 71 72 73 73 72 72 71 70 68 66 64 64 64 67 72
66 66 66 66 66 65 65 65 64 64 62 60 61 62 63 64 65 65 65 66 67 68 69 70 70 70 70 69 67 66 63 60 57 55 56 57 59 63
65 65 65 65 65 64 64 64 63 63 62 60 60 61 62 63 64 64 64 65 66 67 68 68 67 67 66 64 62 60 57 54 51 49 49 50 53 57
63 63 63 64 64 63 62 62 61 61 61 60 59 60 60 62 62 62 63 64 64 65 65 64 64 63 61 59 58 55 51 49 45 45 45 47 49 53
62 62 62 62 62 61 61 60 61 60 59 59 58 59 59 60 61 61 61 62 62 62 62 61 60 58 56 55 54 51 47 44 42 42 43 44 47 52
61 61 61 61 60 60 60 60 59 59 58 58 58 58 58 59 60 61 61 60 60 60 60 58 57 55 53 52 51 47 44 42 41 41 42 44 48 52
60 60 60 60 60 59 59 58 58 58 58 58 58 57 57 58 59 60 60 60 58 57 58 55 54 52 50 49 47 44 41 40 40 39 40 44 47 52
60 60 60 59 59 58 58 58 57 57 57 57 56 56 56 57 58 58 58 57 56 54 55 52 50 49 47 46 44 41 38 37 37 37 40 43 48 53
60 60 59 58 57 57 57 56 56 55 55 55 55 55 55 56 56 56 55 54 52 51 53 51 47 46 44 43 42 38 36 35 36 37 41 44 48 54
58 58 57 56 56 56 56 55 54 53 53 53 53 53 54 53 54 54 53 52 50 48 50 49 46 44 41 39 39 36 34 33 34 37 41 45 49 53
57 56 56 55 55 55 54 52 51 51 51 50 51 51 51 51 51 51 51 50 49 46 46 46 43 42 37 35 36 34 32 31 32 35 40 45 49 55
56 54 53 54 53 52 52 50 49 48 48 48 48 49 49 48 47 48 48 48 47 45 44 42 40 39 37 32 32 31 30 29 31 35 41 44 49 56
53 51 51 51 51 50 48 47 46 46 46 46 47 47 46 45 44 44 44 44 44 43 41 41 39 37 35 32 29 28 27 27 30 35 43 46 49 56
50 48 48 47 47 46 45 44 43 43 44 44 44 44 43 42 42 42 42 42 41 40 39 38 37 34 32 30 27 25 25 26 28 33 44 46 49 56
47 45 44 43 42 41 41 41 41 41 42 42 42 41 40 40 40 40 39 39 38 37 37 36 34 31 29 28 26 24 24 24 26 32 44 48 50 56
44 43 42 40 38 37 37 37 38 39 39 39 39 38 37 37 37 37 37 36 35 34 33 33 32 29 27 26 25 23 22 23 26 32 42 49 51 57
40 39 37 36 34 34 33 35 36 37 37 37 37 36 35 35 35 35 35 34 34 33 32 31 29 28 26 25 24 22 21 21 24 33 41 49 54 59
35 34 33 32 31 31 31 32 33 34 34 35 35 34 34 34 34 33 33 33 32 32 31 29 28 26 24 22 21 20 19 19 23 33 42 49 55 60
32 31 30 29 29 29 30 31 32 32 32 33 33 32 32 32 32 32 32 31 31 30 28 28 26 25 23 20 19 18 17 17 22 32 41 48 56 61
30 29 28 28 28 28 29 30 30 30 31 31 31 31 30 30 30 30 30 30 29 28 27 26 25 23 21 19 17 15 15 16 21 31 40 47 54 60
27 27 27 27 27 28 28 28 28 29 30 30 29 29 29 28 28 28 28 28 28 27 26 24 23 22 19 17 15 13 13 15 21 30 39 46 52 59
26 26 26 26 26 26 26 26 27 28 28 28 27 27 27 26 26 26 27 27 27 26 25 23 22 20 18 15 13 12 12 15 21 29 38 46 52 59

GEFSNE_500_meanwind_090.txt.gz
Wind_Speed
69 69 68 67 67 67 66 66 65 63 61 60 61 62 63 64 64 63 62 62 62 63 63 63 63 63 64 64 65 66 66 67 68 70 71 73 74 75
67 67 67 66 67 66 66 65 65 65 62 60 61 61 63 63 63 63 63 63 63 64 64 63 63 63 63 64 65 66 67 68 70 71 73 74 76 77
66 66 65 66 66 66 65 65 65 65 63 61 62 63 63 63 63 64 63 64 64 64 64 63 63 63 63 64 65 66 67 69 70 72 73 75 77 78
64 64 64 64 64 64 64 63 64 64 63 62 61 62 62 63 64 64 64 64 63 63 63 63 63 63 63 64 65 66 67 68 70 71 73 75 77 78
63 63 63 63 63 63 64 64 64 64 63 62 61 62 62 63 63 63 63 63 63 63 63 63 63 64 64 65 66 66 67 69 70 71 73 74 76 77
62 62 62 62 63 64 64 64 64 64 64 63 62 62 62 63 63 62 63 63 62 62 62 63 64 64 65 66 67 67 68 69 70 71 72 73 74 75
60 60 61 62 63 63 63 63 63 63 64 63 62 62 61 62 62 62 62 61 61 61 62 63 63 64 65 66 66 67 67 67 68 69 70 71 71 72
59 59 60 61 61 61 61 62 62 63 62 62 61 60 60 60 61 61 61 61 60 60 62 61 62 62 63 63 64 65 65 66 66 67 68 68 69 69
59 59 59 59 59 59 60 60 60 60 60 60 59 59 59 59 60 60 59 60 59 59 61 59 60 60 60 61 62 63 64 64 65 65 65 65 65 65
56 57 57 57 58 59 59 59 59 59 59 59 58 57 58 58 59 59 59 58 57 58 59 58 57 58 58 58 59 61 61 62 62 62 62 62 62 60
55 56 57 57 57 58 58 58 57 57 57 57 57 56 56 56 56 56 56 56 55 54 56 57 56 57 56 55 56 58 59 60 60 60 59 59 58 56
55 56 56 56 56 57 57 56 55 54 55 55 54 54 54 54 54 54 54 54 53 52 53 55 55 56 54 51 52 55 56 57 57 57 56 55 53 51
53 54 54 54 54 55 55 54 53 52 52 52 52 52 51 51 52 52 52 51 51 50 52 53 53 53 53 49 49 51 53 53 53 53 51 49 47 46
52 52 52 52 52 52 52 51 50 50 49 49 49 48 48 48 49 49 50 49 49 49 50 51 51 51 50 49 47 47 49 49 49 48 47 45 43 43
50 50 49 49 48 48 48 48 47 46 46 46 45 45 45 45 46 46 46 47 47 47 49 49 49 48 48 46 45 44 44 44 45 44 43 41 40 39
47 47 47 46 46 45 44 44 43 43 42 42 42 42 42 42 42 43 43 43 44 44 46 47 46 45 44 44 43 41 41 41 41 41 39 37 36 36
45 45 44 43 42 41 40 39 40 40 40 39 39 39 39 39 39 40 40 40 41 41 42 43 43 42 42 41 40 40 39 39 39 38 36 34 33 35
43 42 41 40 39 38 37 37 37 37 37 36 36 36 36 36 37 37 38 38 39 39 39 40 40 40 39 39 40 39 38 37 36 35 34 32 31 33
39 38 37 35 35 34 34 34 34 34 33 33 34 34 34 34 35 35 36 37 36 37 37 37 38 38 37 36 36 38 37 34 33 32 32 31 30 31
36 34 33 32 32 32 31 31 31 31 31 31 32 33 33 33 34 34 34 35 34 34 34 35 36 36 35 34 32 33 35 33 32 30 30 29 29 31
33 32 31 30 29 28 28 28 28 29 29 30 30 31 31 31 32 32 32 32 32 31 31 32 34 34 33 32 31 30 31 32 30 28 27 26 27 30
31 30 29 28 28 27 26 27 27 28 28 28 28 29 29 29 30 30 29 29 29 30 30 30 32 32 31 31 29 28 28 29 28 26 25 24 26 29
30 29 28 28 26 26 25 25 26 26 26 27 27 27 27 27 27 27 28 28 28 28 28 29 29 29 29 29 28 27 27 26 25 24 22 23 26 30

GEFSNE_500_meanwind_096.txt.gz
Wind_Speed
75 76 76 76 76 77 77 77 77 75 72 71 72 71 72 72 72 71 70 69 67 66 65 64 64 64 64 64 64 64 64 64 63 63 63 64 64 65
77 77 77 76 77 77 76 76 77 76 73 70 70 70 71 72 72 71 70 69 68 67 66 66 65 66 66 65 65 65 64 64 65 64 65 65 65 66
77 77 76 76 76 75 75 74 74 73 71 67 68 69 70 70 70 69 68 67 66 66 65 65 65 66 67 67 66 66 65 65 65 66 66 66 66 67
77 77 75 75 74 74 73 72 72 71 71 67 66 67 68 68 67 66 66 66 65 65 66 67 66 66 66 65 65 65 66 65 65 65 66 66 66 67
75 75 73 72 71 70 70 70 69 68 68 66 64 65 65 66 66 66 66 66 66 67 67 67 67 66 65 64 65 65 65 65 65 65 66 66 66 67
72 71 69 69 68 67 67 66 66 65 65 64 62 63 63 64 65 65 66 67 66 66 66 65 65 65 64 65 65 65 65 65 65 65 66 66 67 67
67 65 65 65 64 64 64 64 64 64 63 62 61 62 62 63 63 64 65 65 65 65 64 64 64 63 64 64 64 64 65 65 65 66 66 66 67 67
61 61 60 59 59 60 60 60 60 60 60 61 60 60 61 62 63 63 63 63 62 62 63 63 63 63 62 63 63 63 63 64 65 65 65 66 67 68
56 55 55 55 56 56 56 56 57 57 58 59 58 58 59 60 61 61 61 61 60 61 61 60 60 60 61 61 62 62 62 62 63 64 65 66 67 67
51 51 51 51 52 53 53 54 54 55 56 57 56 56 57 58 59 59 60 60 59 59 59 58 59 59 59 60 60 61 61 62 63 64 65 65 66 66
47 47 48 48 49 50 50 50 51 52 53 54 55 55 56 57 58 59 59 59 58 57 58 57 57 58 58 58 59 60 61 61 62 63 64 64 65 65
44 44 46 47 47 48 49 49 49 50 51 52 53 54 55 56 56 56 57 57 56 55 55 55 55 56 55 55 56 58 59 60 61 61 62 63 64 65
42 43 43 45 45 46 47 47 48 49 50 51 52 52 52 53 53 54 53 53 53 52 52 53 53 54 54 53 53 55 56 58 59 60 61 62 63 64
41 41 42 43 44 45 45 46 47 48 49 50 50 49 49 49 49 49 50 50 49 49 50 51 52 52 53 52 51 52 54 56 57 58 59 60 61 62
41 41 42 42 43 44 44 44 45 46 47 46 46 45 45 46 46 46 46 47 47 47 48 49 49 50 50 50 50 50 52 53 55 56 57 57 58 59
41 41 41 42 42 42 42 42 42 43 43 43 42 42 42 42 43 43 44 44 45 45 46 46 47 48 48 47 48 48 50 50 51 53 54 54 54 55
40 39 39 39 39 39 39 39 40 40 39 39 38 37 37 38 39 39 40 41 41 42 43 44 45 45 45 45 45 46 47 48 49 50 50 49 49 49
39 38 38 38 37 36 36 37 37 36 36 35 35 34 34 35 36 37 37 38 39 39 40 42 43 43 43 42 43 44 44 45 45 45 46 45 43 44
37 37 37 36 35 34 33 33 33 32 33 32 32 32 32 32 33 34 34 35 36 36 38 39 40 41 40 39 39 41 41 41 42 42 43 43 41 40
36 35 34 33 32 31 31 30 30 30 30 30 29 29 29 30 30 31 32 32 33 34 35 36 36 37 37 36 36 36 39 40 40 40 40 40 39 39
33 32 31 31 30 29 29 29 29 29 28 28 28 27 27 27 28 28 29 30 30 31 31 32 33 34 34 34 33 33 36 38 39 39 39 39 38 37
31 30 30 29 29 28 28 28 28 27 27 27 27 27 27 27 27 28 28 28 29 29 30 31 32 32 33 33 32 32 33 36 37 38 38 37 36 34
30 29 29 29 28 28 28 27 27 27 27 26 26 26 27 27 28 28 28 28 28 29 29 30 30 31 32 32 31 31 32 33 34 34 34 35 35 33

GEFSNE_500_meanwind_102.txt.gz
Wind_Speed
82 83 85 86 87 87 88 89 90 89 87 85 86 86 85 84 84 83 82 81 80 80 78 77 76 75 75 75 74 73 72 71 69 68 67 66 65 65
85 85 85 85 86 87 87 88 88 89 87 82 83 84 83 81 81 80 79 78 77 77 76 75 75 75 75 74 73 72 72 71 70 69 69 68 67 66
84 84 83 83 83 83 84 84 84 83 83 77 78 78 78 77 76 75 75 74 73 73 72 72 72 73 72 73 72 71 71 71 70 70 69 68 67 67
81 80 79 79 78 77 76 75 75 75 75 72 71 73 73 73 72 72 72 71 71 70 69 69 69 69 69 69 69 70 70 69 69 68 68 68 67 67
77 75 73 72 70 69 68 68 67 68 68 67 64 66 67 67 68 68 68 68 68 68 67 67 67 67 67 66 67 67 67 67 67 67 67 67 67 67
71 69 67 65 64 63 62 62 62 62 62 61 58 58 59 60 61 61 62 64 65 66 65 64 64 64 65 65 65 65 65 66 66 66 66 66 67 67
64 62 61 59 58 58 57 57 56 56 55 54 53 52 52 54 55 56 58 59 60 61 62 62 62 62 63 63 64 64 65 65 66 66 66 67 67 68
58 56 55 54 53 53 52 52 52 51 50 49 48 48 47 49 50 52 53 54 55 55 57 58 59 59 60 61 62 63 64 65 65 66 66 67 67 67
54 53 52 51 50 49 47 47 46 46 45 45 45 44 44 45 47 48 49 51 51 53 54 54 56 57 58 59 59 60 61 62 63 64 65 65 65 65
51 50 49 48 47 46 45 43 42 42 43 43 43 42 43 44 45 46 47 47 48 49 51 52 54 55 56 57 58 59 60 60 61 62 63 63 63 64
49 48 47 46 44 43 43 42 41 40 41 41 42 41 42 42 43 44 45 45 46 47 48 50 51 54 55 55 56 57 58 59 60 60 61 61 62 62
46 45 44 43 41 41 41 40 39 39 39 39 40 40 40 41 42 43 44 45 46 46 47 48 50 52 52 53 54 55 56 57 58 59 59 60 61 61
44 42 41 41 40 40 40 39 39 38 38 37 37 38 39 39 40 41 42 44 45 45 45 47 48 50 51 51 52 53 54 55 56 56 57 58 59 60
42 41 40 39 39 39 38 38 37 37 37 36 36 36 37 38 38 39 40 41 42 43 44 46 47 48 48 49 49 50 51 52 53 54 54 55 56 58
40 39 39 38 37 37 36 36 36 36 36 36 35 35 36 37 37 38 39 39 40 41 42 43 44 45 46 46 47 48 48 50 51 52 53 54 54 55
39 38 37 36 36 35 35 35 35 35 34 34 33 33 34 35 35 36 36 37 38 38 39 41 42 43 44 44 45 45 46 47 48 50 52 52 53 53
37 36 35 35 34 33 33 33 32 32 33 32 32 32 32 32 33 33 34 35 36 36 37 38 40 41 41 42 42 42 43 45 46 48 49 50 50 51
35 34 34 34 33 32 31 31 31 31 31 30 30 30 30 31 31 32 32 33 33 33 34 35 36 37 38 38 39 40 41 43 44 45 46 47 47 49
34 33 33 32 32 31 30 30 30 29 28 28 28 29 29 29 30 30 30 30 30 30 31 31 32 33 34 35 36 38 40 42 43 43 45 45 45 47
33 32 32 31 31 30 30 29 28 28 27 27 27 28 28 28 29 29 29 29 29 29 29 29 30 30 31 32 33 34 37 39 40 41 42 43 43 44
32 31 31 31 31 30 29 28 28 28 27 27 27 28 28 28 29 29 29 29 29 28 28 29 29 29 29 30 31 32 35 37 38 40 41 42 42 43
31 31 31 31 31 30 29 28 28 27 28 28 28 28 28 29 29 29 29 29 29 29 29 29 30 30 30 30 31 32 34 36 37 39 40 41 41 40
31 31 31 31 30 30 29 29 28 29 29 29 29 29 29 29 29 30 30 30 30 30 30 30 30 31 31 32 32 33 34 35 37 38 38 39 39 38

GEFSNE_500_meanwind_108.txt.gz
Wind_Speed
72 74 76 78 79 81 82 84 85 86 83 81 81 81 83 84 84 85 86 85 84 84 84 85 86 86 87 87 87 87 87 86 85 84 83 81 79 78
75 77 78 79 80 80 81 81 82 83 81 76 75 75 76 76 76 76 76 75 74 74 75 77 78 79 80 81 82 83 83 83 83 82 82 81 79 78
76 77 78 78 78 78 78 77 77 77 77 72 71 70 70 69 67 67 66 66 66 67 68 70 72 73 74 75 76 77 78 79 79 79 78 78 77 76
76 77 76 76 75 74 74 73 72 72 72 68 64 63 62 62 61 61 61 62 61 61 62 63 64 65 66 67 68 70 71 73 74 75 74 74 73 73
76 75 74 73 72 71 70 68 67 66 65 63 59 56 56 57 57 57 57 56 56 56 56 56 57 58 59 60 61 62 65 67 68 69 71 71 71 71
73 72 71 70 68 67 65 63 62 61 60 58 55 53 52 53 53 53 52 52 52 52 51 51 51 52 54 55 55 56 58 60 62 64 66 67 68 68
70 69 67 66 64 63 61 59 58 57 55 54 52 51 50 50 49 49 48 48 47 47 47 47 48 48 50 51 52 52 53 55 58 60 62 63 64 65
67 66 64 62 60 59 57 56 55 54 52 52 51 49 47 47 46 46 45 44 43 43 44 43 44 43 45 46 48 50 51 53 54 56 58 60 62 62
65 63 60 58 57 56 54 53 52 51 51 50 49 47 46 45 45 43 42 41 39 39 40 39 40 40 41 42 44 45 47 49 51 52 54 57 59 61
63 60 58 56 54 53 52 50 49 48 48 47 46 45 44 43 43 41 40 39 38 37 38 37 37 38 39 40 41 42 43 45 47 48 50 52 55 57
59 57 55 53 51 51 50 48 46 45 44 44 43 42 41 40 40 39 38 38 37 35 36 36 36 36 37 37 38 39 40 41 43 45 47 49 51 53
56 54 52 50 49 48 47 46 43 42 41 41 40 39 38 38 38 38 37 37 35 33 33 34 34 35 35 35 37 38 39 40 41 43 45 47 49 51
53 50 48 47 46 45 44 43 41 40 39 38 37 36 36 36 36 36 36 35 34 32 32 33 33 33 34 34 35 37 38 38 40 41 44 46 48 49
51 49 47 45 44 42 41 40 39 38 37 37 36 35 35 35 34 34 34 33 32 31 31 31 32 32 33 33 33 34 36 37 39 40 42 44 46 48
49 47 45 43 41 40 39 38 37 37 36 35 34 34 34 33 33 33 32 32 32 31 31 31 30 31 31 32 32 33 34 35 36 38 40 42 44 46
47 45 43 41 40 38 38 37 36 35 35 34 33 32 32 32 32 32 31 31 31 30 30 31 31 31 30 31 31 32 33 34 35 37 39 40 42 44
44 41 39 38 37 36 36 35 34 34 34 33 32 31 31 31 30 30 30 30 29 29 30 30 31 30 30 30 30 31 32 33 35 36 37 39 40 42
42 39 37 36 35 35 34 33 33 33 33 32 32 31 30 29 29 28 28 28 28 29 29 29 30 30 30 30 30 31 31 32 33 34 35 35 36 39
39 37 36 35 35 34 34 33 33 32 32 31 31 30 29 28 28 27 27 27 27 28 28 28 29 29 29 30 31 31 31 31 31 32 32 33 34 36
38 36 35 35 35 34 33 33 33 32 32 31 30 30 29 28 27 27 27 27 27 27 28 28 29 29 29 29 30 31 32 32 31 31 31 32 33 34
36 35 35 35 34 33 33 33 32 32 32 31 31 30 30 29 29 28 28 28 28 28 28 28 29 30 30 29 29 30 31 31 31 31 31 31 32 33
35 34 34 34 34 33 33 33 32 32 32 31 31 31 31 30 30 29 29 29 29 28 29 29 30 30 30 30 29 30 30 31 32 32 32 32 32 32
35 34 34 34 33 33 33 33 32 32 32 32 32 31 31 31 31 31 30 30 30 30 29 29 30 30 30 30 30 31 31 32 32 32 32 33 33 33

GEFSNE_500_meanwind_114.txt.gz
Wind_Speed
61 63 65 67 68 70 72 74 76 76 75 75 77 77 78 79 79 80 81 81 82 82 82 82 81 82 83 84 86 87 89 90 90 91 91 90 90 88
64 66 67 69 70 72 74 75 78 80 79 78 78 78 78 77 76 76 76 76 76 76 76 76 75 75 75 75 76 77 79 81 83 85 86 87 87 87
66 68 69 71 72 74 75 77 78 80 80 77 77 76 75 73 71 71 70 70 69 69 69 68 67 67 66 66 67 67 69 71 73 75 77 79 80 82
68 69 71 72 73 75 76 77 78 78 78 76 72 71 70 69 68 66 65 64 63 62 62 61 60 60 60 60 61 61 62 63 65 66 67 70 73 74
69 70 72 73 74 75 76 76 75 75 74 72 69 67 65 64 63 61 60 59 58 57 57 56 56 56 56 56 56 57 57 58 58 59 60 61 64 66
70 72 73 75 75 75 75 74 73 72 70 69 66 63 61 60 59 58 57 55 54 54 53 53 52 52 52 52 52 52 52 53 53 54 55 56 58 60
72 73 74 75 75 75 74 72 70 68 67 65 63 60 58 56 55 54 53 52 51 51 50 50 49 48 48 48 48 49 49 49 49 50 51 52 53 56
73 74 75 75 74 73 71 69 68 66 64 62 59 56 54 52 51 50 50 49 47 46 46 45 46 45 45 45 45 45 45 45 46 46 46 48 49 51
75 75 75 73 72 70 67 66 64 62 60 58 55 52 50 49 48 47 46 44 42 41 42 41 41 41 42 42 42 42 41 41 42 42 43 44 45 47
76 75 73 71 69 67 65 62 59 57 56 54 52 49 48 47 46 44 43 41 39 38 39 37 37 38 38 38 39 39 38 38 39 39 39 40 42 44
74 73 71 69 66 64 62 59 55 53 51 50 49 47 45 44 43 42 40 38 36 35 36 35 34 35 35 35 36 36 35 35 36 37 37 38 39 41
72 70 68 66 63 60 58 55 52 50 48 47 46 44 43 41 40 39 38 36 35 34 34 34 33 33 32 32 33 32 32 32 33 34 35 36 37 39
70 66 64 62 59 57 55 53 50 48 46 44 42 41 40 38 37 36 36 35 34 32 32 32 31 31 30 30 31 30 30 29 29 30 31 32 34 36
67 64 61 58 55 53 51 49 48 46 44 41 39 37 36 36 35 34 34 33 32 31 31 30 30 29 29 28 28 29 29 28 28 29 30 30 31 33
65 61 58 54 51 49 48 46 45 43 41 39 37 35 35 34 33 33 32 32 31 30 30 29 28 28 27 26 27 27 28 28 28 28 28 29 30 31
61 57 54 51 49 47 45 43 42 40 38 36 34 34 33 32 32 31 31 31 30 29 29 28 28 27 26 26 25 26 27 27 28 27 27 28 29 30
57 53 50 48 46 44 43 41 40 39 37 35 34 33 32 31 31 31 30 29 28 28 28 28 27 26 25 25 24 25 26 27 27 28 27 27 27 29
54 50 48 45 43 41 40 39 38 37 36 35 34 33 31 31 30 30 29 28 28 27 27 27 26 26 25 24 25 25 26 27 27 27 27 27 27 28
51 48 46 43 41 39 38 36 36 35 34 34 33 32 31 31 30 30 30 29 28 27 27 27 26 26 25 25 25 25 26 26 27 27 27 28 28 29
48 46 43 41 39 38 36 35 34 34 33 33 32 32 31 31 30 30 30 29 29 28 28 27 27 27 26 26 25 26 26 27 27 28 29 29 29 30
44 42 41 39 38 36 35 34 33 33 32 32 31 31 31 31 30 30 30 30 29 29 28 28 28 28 28 27 26 27 27 28 28 29 29 30 30 31
41 39 38 37 36 34 33 33 32 32 31 31 31 31 30 30 30 30 30 30 30 29 29 29 29 29 29 28 28 28 28 28 28 29 29 30 30 30
38 37 36 35 34 33 33 32 32 31 31 31 31 31 30 30 30 30 30 30 30 30 29 29 30 30 30 29 29 29 28 28 29 29 29 29 30 30

GEFSNE_500_meanwind_120.txt.gz
Wind_Speed
55 56 57 59 60 61 62 64 65 64 63 63 65 66 68 69 70 71 72 73 74 75 76 77 77 77 77 77 77 78 78 79 79 80 81 81 82 82
57 58 59 60 61 63 64 65 67 68 68 67 68 69 70 71 72 73 73 74 74 75 75 75 75 75 75 75 74 74 74 75 76 76 77 78 78 79
59 60 60 62 63 64 66 67 68 69 70 69 70 71 73 74 74 75 75 75 74 73 72 72 71 71 70 70 69 69 69 69 70 71 72 73 73 75
60 61 62 64 65 66 67 68 69 71 72 71 71 73 74 75 76 76 76 75 73 71 70 68 67 66 65 64 64 63 63 63 63 64 65 66 67 68
62 63 64 66 66 67 68 69 71 72 74 74 74 75 76 77 76 75 74 72 71 69 67 65 64 62 60 59 58 57 57 57 58 58 59 59 60 61
64 65 66 67 68 69 70 71 73 74 76 77 77 77 76 76 75 73 70 68 66 64 63 61 59 56 54 53 52 52 52 52 52 53 54 54 55 55
65 67 68 69 70 71 72 73 75 76 77 78 78 77 75 73 71 69 66 63 60 59 57 55 53 51 51 50 49 49 49 48 48 48 49 49 50 51
68 69 70 71 72 73 75 76 78 79 79 79 78 75 72 69 66 63 61 58 54 53 52 49 49 47 47 46 45 45 45 44 44 44 44 44 45 46
71 72 73 74 75 76 77 78 78 79 79 78 75 71 67 63 61 58 55 53 50 48 47 45 45 44 43 43 42 41 40 40 39 39 40 40 41 42
74 75 75 76 77 78 78 77 76 76 75 73 69 65 61 58 56 53 51 48 46 45 44 41 40 40 40 40 38 37 37 36 35 35 36 36 37 38
75 76 76 77 77 78 77 76 74 72 69 66 63 59 56 53 52 50 47 45 42 40 40 39 37 37 36 36 35 35 34 34 33 33 33 33 33 34
76 76 76 77 76 76 76 75 72 68 64 61 57 54 52 50 48 46 44 42 39 36 36 36 34 34 32 32 33 33 33 32 32 31 31 31 31 31
76 76 76 76 76 75 75 73 69 64 59 56 52 50 48 46 45 44 42 39 37 34 33 33 31 31 30 29 30 32 31 30 29 29 29 29 29 28
78 76 75 75 74 73 71 68 64 59 55 52 48 46 44 43 41 40 39 37 35 33 31 30 29 29 28 28 28 29 29 28 27 27 26 26 26 26
77 76 75 74 72 70 67 62 58 54 51 48 45 43 41 39 38 37 36 35 33 31 30 29 28 27 27 26 27 27 27 26 25 25 24 24 24 24
76 75 73 71 69 65 60 56 52 49 47 44 41 40 38 36 35 34 33 32 30 29 29 28 27 26 26 25 25 25 25 24 23 22 22 22 22 22
75 73 70 67 63 58 53 49 47 44 43 41 38 36 35 33 32 31 31 30 29 28 28 27 26 25 25 24 24 24 24 23 23 22 21 21 21 21
73 70 66 61 56 52 48 44 42 41 40 38 36 34 32 31 30 29 29 28 27 27 27 26 26 25 24 23 23 23 23 22 22 21 21 21 21 21
69 64 59 54 50 47 43 40 38 37 36 35 33 32 30 29 28 28 28 27 26 26 26 26 26 24 23 23 23 23 23 22 21 21 21 21 21 21
62 58 53 49 46 42 40 37 36 34 33 32 31 30 29 28 27 27 26 26 26 25 26 26 26 25 24 23 23 23 23 23 22 21 20 20 21 21
55 51 48 45 41 38 36 34 33 32 31 30 29 29 28 27 26 26 25 25 25 25 25 25 25 25 24 23 23 23 24 23 23 22 21 21 21 21
50 46 43 41 38 36 34 33 31 31 30 29 28 27 26 26 25 25 25 24 24 24 24 24 24 24 24 24 23 24 24 24 24 23 23 22 22 22
46 43 40 37 35 34 32 31 30 29 29 28 27 26 26 25 25 25 25 25 24 24 24 24 24 24 24 24 24 24 24 24 24 24 24 23 23 23

GEFSNE_500_meanwind_126.txt.gz
Wind_Speed
52 53 53 54 55 56 56 57 58 57 57 57 59 60 61 62 63 64 65 66 66 67 68 68 69 69 70 71 72 73 73 74 74 75 75 75 75 75
53 54 55 56 57 57 58 59 60 61 61 61 62 63 65 66 67 68 68 69 69 70 71 71 72 73 73 74 75 75 76 76 76 76 77 77 77 77
54 55 56 57 58 59 60 61 63 64 64 63 65 67 68 70 71 72 72 73 73 73 74 75 76 76 77 77 77 77 76 76 75 75 75 74 74 75
56 57 58 59 60 61 63 64 65 66 67 67 68 70 72 73 74 75 75 76 76 77 78 78 79 79 79 78 77 75 74 73 72 71 71 71 71 71
57 58 60 61 62 64 65 67 68 69 71 71 72 73 75 76 76 77 78 78 79 79 80 80 80 79 78 76 73 71 69 68 67 66 66 66 66 66
59 61 62 64 65 67 68 70 71 72 74 75 76 76 76 77 78 78 78 79 79 79 79 78 77 75 72 70 68 66 65 63 62 61 61 61 60 61
62 63 65 67 68 70 71 72 74 75 77 77 77 76 76 76 77 77 77 76 75 74 73 71 69 66 64 62 60 58 57 56 55 55 55 55 55 55
65 66 68 69 70 72 73 74 76 78 79 79 78 77 76 76 76 75 74 72 69 67 65 62 60 57 56 54 53 51 50 49 49 48 48 49 49 50
68 69 70 72 73 74 75 76 78 78 79 79 78 77 76 75 75 73 71 68 64 61 59 55 53 51 50 48 47 45 44 43 43 43 43 43 44 44
70 71 73 74 75 76 77 78 78 78 78 78 78 76 75 73 72 69 66 63 59 55 53 50 48 46 45 43 42 41 40 39 39 38 38 38 38 38
72 73 74 75 76 78 79 79 77 76 76 76 75 74 72 70 67 65 60 57 52 48 47 45 43 41 40 39 38 37 35 35 34 34 34 33 33 33
74 74 75 76 77 77 78 77 76 74 74 72 71 69 67 64 61 58 54 51 47 43 42 41 38 37 34 34 34 33 32 31 30 30 30 30 30 30
75 76 76 76 75 75 75 75 74 72 70 68 66 63 60 56 53 50 48 45 42 39 38 36 34 32 30 29 30 30 29 28 27 26 26 27 27 27
76 75 74 74 74 73 73 72 71 69 66 64 61 57 53 49 46 44 42 40 37 35 33 32 30 29 28 27 27 27 26 24 24 23 23 24 24 25
75 74 73 73 72 71 69 68 66 64 62 59 55 50 46 43 40 38 37 35 33 31 30 28 27 26 26 25 24 24 23 23 22 21 21 21 22 23
74 73 72 71 70 68 65 63 61 59 56 53 48 44 41 38 36 35 33 31 29 28 27 26 25 24 23 23 23 22 22 22 21 20 20 20 20 20
73 72 70 69 66 63 61 58 56 54 51 47 43 40 37 35 33 32 30 28 27 26 25 24 23 22 22 21 21 21 21 21 20 19 19 19 18 18
72 70 67 64 61 59 57 54 51 48 45 41 39 36 34 32 30 28 26 25 25 24 24 23 22 21 20 20 20 20 20 20 19 19 18 18 18 17
68 66 63 60 57 55 53 50 46 43 40 38 36 33 31 29 27 25 24 23 23 22 22 21 21 20 19 19 20 20 20 20 19 18 18 18 18 17
64 61 58 55 53 51 47 44 41 39 37 35 33 31 29 27 25 24 23 22 21 21 20 20 20 19 18 18 19 19 19 19 19 18 18 18 17 17
59 56 53 51 49 46 43 40 37 35 33 32 30 28 26 24 23 22 22 21 20 20 20 19 19 18 17 17 17 18 17 17 18 18 18 18 18 17
54 51 49 47 45 43 40 37 34 32 31 29 27 26 24 23 22 21 21 20 19 19 19 19 18 18 17 17 17 17 17 17 18 18 18 18 18 18
49 48 46 44 42 40 37 34 31 30 28 26 25 24 22 21 20 20 20 19 19 19 19 18 18 18 18 17 17 18 18 18 18 18 18 19 19 19

GEFSNE_500_meanwind_132.txt.gz
Wind_Speed
48 48 49 50 51 51 52 53 53 52 51 52 53 54 55 56 57 59 60 61 62 63 64 65 66 67 68 69 70 71 72 73 73 74 74 74 74 74
50 50 51 51 52 52 54 54 55 56 55 55 56 57 59 60 61 63 64 65 66 67 68 69 71 72 73 74 75 76 77 78 78 78 78 78 78 78
51 52 52 53 53 55 56 57 58 59 59 58 60 62 63 65 66 67 68 69 70 71 73 74 75 76 77 77 78 79 79 80 80 79 79 79 80 80
52 53 54 55 56 57 59 60 61 62 64 63 64 66 68 69 70 71 71 72 74 75 76 76 77 78 78 78 78 78 78 78 79 79 79 79 79 79
54 54 56 57 59 60 62 63 64 66 67 68 68 70 71 72 73 74 74 75 76 77 77 77 77 77 76 76 76 75 75 75 75 75 74 74 74 74
55 56 58 60 61 63 65 66 68 69 70 72 72 72 72 73 75 75 75 75 76 76 76 76 76 75 75 74 73 72 71 70 69 68 68 68 67 67
57 59 60 62 64 66 68 69 70 71 72 73 73 73 73 74 75 75 75 74 73 74 74 74 73 72 70 69 68 66 65 64 62 61 60 60 60 60
59 61 62 65 67 68 69 71 72 73 73 73 73 73 73 73 74 74 74 74 73 72 72 69 68 65 64 62 60 58 56 55 53 52 51 51 51 51
61 63 65 67 68 70 71 72 72 73 74 74 74 73 73 73 74 73 73 73 71 69 67 63 60 58 56 54 52 50 49 48 46 45 43 42 42 42
63 65 67 69 70 71 72 73 72 72 73 74 74 73 73 73 74 73 72 70 67 63 61 58 54 52 50 48 46 45 43 41 39 37 36 35 35 35
66 68 69 70 71 73 73 72 71 71 72 72 73 73 73 72 71 70 67 65 60 55 54 52 49 46 43 41 40 38 36 35 33 31 31 30 30 30
67 69 70 71 71 72 72 72 72 71 71 71 71 71 69 67 65 63 60 57 53 49 46 45 42 40 35 34 33 32 31 30 28 27 26 26 25 25
68 69 70 71 71 71 72 72 72 71 71 69 68 65 63 60 58 55 53 51 47 44 41 39 36 34 31 28 28 28 27 25 24 23 23 22 22 21
69 69 70 70 70 71 71 71 70 70 68 65 62 60 57 55 52 49 47 45 42 39 37 35 32 30 27 24 23 24 23 22 21 20 20 19 19 19
69 70 70 70 70 70 70 69 67 65 62 60 58 55 53 50 47 45 42 40 37 34 33 31 28 26 24 22 21 21 20 19 18 18 17 17 16 16
69 70 70 69 69 68 66 64 62 60 58 56 54 51 48 46 44 40 37 34 31 30 29 27 25 23 21 20 19 18 17 16 16 15 15 15 15 15
70 69 68 67 65 63 61 59 57 55 54 52 49 45 43 41 39 36 33 30 28 27 26 24 22 21 19 17 16 15 15 15 14 14 13 13 13 13
69 67 66 63 61 58 56 54 53 52 50 47 44 42 40 37 34 31 29 28 26 24 23 21 20 18 17 16 15 14 13 13 13 12 12 12 12 12
67 64 62 59 57 55 53 51 50 48 46 43 40 38 36 34 30 28 27 26 24 22 20 19 17 16 15 14 13 13 13 12 12 11 11 11 11 11
63 61 58 56 54 53 51 49 47 45 42 39 37 35 33 30 27 26 25 23 22 20 18 17 15 14 13 12 12 12 12 11 11 10 10 10 10 10
59 57 56 54 52 50 48 45 43 41 38 36 34 32 30 28 26 25 23 22 20 18 16 15 14 13 12 12 11 12 11 10 10 10 10 10 10 10
57 55 53 51 49 47 45 42 40 38 36 34 32 30 28 25 24 23 21 20 18 16 15 14 13 13 12 11 11 11 11 10 10 10 10 10 10 10
54 52 50 48 46 44 41 40 38 36 34 32 30 28 25 24 22 21 19 18 16 15 14 13 13 12 12 11 11 11 11 11 11 11 11 11 11 11

GEFSNE_500_meanwind_138.txt.gz
Wind_Speed
46 47 48 49 49 50 50 50 51 50 49 50 51 53 54 55 56 58 59 60 61 62 63 64 65 66 68 69 69 70 71 71 71 72 72 73 73 74
47 48 48 49 50 50 51 52 53 53 52 52 54 55 57 59 60 61 62 64 65 66 67 69 70 71 72 73 73 74 75 76 76 76 77 78 78 79
48 48 49 49 50 51 52 53 54 56 55 55 57 59 61 62 64 65 66 67 68 69 71 72 73 74 75 76 77 78 78 79 80 81 82 82 83 84
47 49 50 51 52 53 54 55 56 58 58 58 59 61 63 65 66 67 68 69 70 71 72 73 74 74 75 76 76 77 78 79 80 81 82 83 83 83
49 50 51 53 53 55 56 57 58 60 61 62 63 64 66 67 68 68 69 70 71 72 72 72 73 74 74 75 76 77 77 78 78 78 78 77 77 77
50 52 53 54 55 56 57 59 61 62 64 65 66 66 67 68 69 70 70 71 71 72 72 73 74 75 76 76 76 75 75 75 74 72 71 70 70 69
52 53 55 55 56 58 59 61 63 65 66 67 67 67 68 69 69 70 70 70 70 72 72 73 73 73 72 72 71 71 70 69 67 65 64 63 62 61
53 54 55 57 58 60 62 64 66 67 67 68 69 69 68 69 69 70 70 70 70 70 71 69 69 67 67 66 66 65 63 61 60 59 58 57 56 55
54 55 57 59 61 63 64 66 66 67 68 69 69 69 69 69 69 70 70 70 69 68 66 63 63 61 60 59 58 57 55 53 51 50 49 47 46 46
55 57 59 61 63 65 65 65 66 67 68 69 69 69 69 69 70 70 69 67 64 62 61 58 56 54 53 52 51 50 48 45 43 42 40 40 39 38
57 59 60 62 64 66 66 66 66 66 67 68 68 68 68 68 68 67 64 62 58 56 56 54 51 49 48 47 45 44 41 38 37 35 34 34 33 31
58 60 62 64 65 66 66 66 66 67 67 67 66 66 66 64 63 62 59 57 55 52 51 49 46 44 41 40 39 38 35 33 32 30 29 28 27 26
59 61 63 64 65 65 66 67 67 67 66 65 64 63 61 59 58 57 55 54 51 48 46 44 41 39 36 33 33 32 30 28 26 26 25 24 23 21
60 62 63 64 65 65 66 67 67 66 64 62 61 58 56 55 54 53 52 50 48 45 42 40 38 35 32 30 29 28 26 24 23 22 21 19 18 17
61 62 64 64 65 65 65 65 65 63 60 59 57 55 53 52 52 51 49 46 43 40 38 37 34 31 29 27 26 24 22 21 20 19 17 16 15 14
62 63 64 65 65 65 64 63 61 58 57 55 54 52 51 50 49 47 45 42 39 37 35 33 30 28 27 25 23 21 19 18 17 16 14 13 12 12
63 64 64 65 64 63 62 60 57 56 55 53 52 50 49 47 46 43 40 37 35 33 33 31 28 26 24 21 19 18 17 16 14 13 12 11 11 11
64 64 65 64 63 61 59 57 55 54 52 51 49 48 45 43 41 38 35 33 32 30 29 27 25 23 21 18 17 16 14 13 12 11 10 10 9 9
65 65 65 63 61 59 57 54 52 50 48 47 45 43 41 39 36 34 32 30 29 27 25 23 22 20 18 17 15 14 13 11 10 9 8 8 8 7
65 65 63 60 58 56 53 51 49 47 45 43 42 40 38 35 34 32 30 28 26 25 23 21 19 18 16 15 14 12 11 9 8 7 7 7 7 6
64 62 60 57 55 52 50 48 46 44 42 41 39 37 36 34 32 30 28 26 24 23 21 19 18 16 15 13 12 11 9 8 7 6 6 6 6 6
61 59 56 53 51 49 47 45 43 41 40 38 36 35 34 32 30 28 25 23 22 21 19 17 16 15 14 12 11 10 8 7 6 6 6 6 6 6
57 55 52 50 48 46 44 43 41 39 37 36 35 33 32 30 27 24 22 21 20 18 16 15 14 13 12 11 10 9 8 7 7 7 7 7 7 7

GEFSNE_500_meanwind_144.txt.gz
Wind_Speed
43 43 44 45 46 46 47 48 49 48 48 49 51 52 53 54 54 55 56 57 58 59 61 62 63 64 64 65 65 66 66 67 67 67 68 68 68 69
43 43 44 45 46 48 49 50 51 51 51 52 53 55 56 56 57 58 59 60 62 63 64 64 65 65 65 66 66 67 67 68 68 69 70 71 72 72
43 44 45 47 48 49 51 52 53 54 54 55 56 57 58 59 60 61 62 63 64 64 65 65 66 66 67 67 68 68 69 69 70 70 70 71 72 73
44 45 46 48 49 51 52 53 54 56 57 57 57 58 59 60 62 63 64 65 65 66 67 67 67 68 69 69 69 69 69 68 68 68 69 70 70 72
45 46 48 49 51 52 54 55 56 58 58 59 59 60 61 63 64 65 66 67 67 67 67 68 68 68 68 68 67 67 67 67 67 67 67 68 68 69
46 47 49 51 52 54 55 57 58 58 60 61 61 63 64 66 66 67 67 67 68 68 68 68 68 68 67 66 65 65 64 64 64 64 64 64 65 65
47 49 50 52 53 55 57 57 59 60 61 62 64 65 66 67 68 68 68 67 67 67 66 66 66 65 64 63 62 61 61 60 60 60 60 60 60 59
49 50 51 53 55 56 57 59 60 61 63 64 66 67 67 68 68 69 68 67 64 63 63 63 64 62 60 59 58 57 57 57 56 55 55 54 54 53
50 51 53 54 56 56 58 60 61 63 65 66 67 67 68 68 69 68 67 65 63 62 61 60 59 58 57 56 55 55 54 53 51 51 50 49 48 47
50 52 53 55 56 57 59 60 62 64 66 67 67 68 68 68 68 66 64 62 60 59 59 57 55 55 54 54 54 53 51 49 47 46 44 43 42 41
51 53 55 56 57 59 60 62 63 64 66 67 67 67 67 67 66 64 61 60 57 55 55 54 53 51 50 50 49 48 46 44 42 41 39 38 37 35
52 54 55 57 58 60 62 63 63 64 65 65 65 66 66 65 63 61 59 57 55 53 51 51 49 48 46 45 44 43 41 39 37 36 34 33 31 29
53 54 56 58 60 61 62 63 63 64 64 64 64 64 63 61 59 58 56 55 53 51 49 48 46 45 43 41 39 38 36 34 33 31 30 28 27 25
53 55 57 59 60 61 62 62 63 64 64 63 62 61 59 57 56 54 53 52 50 48 46 45 43 42 39 37 34 32 31 30 28 27 26 24 23 21
55 56 58 60 61 61 61 62 63 63 62 61 60 58 56 54 52 51 50 48 46 45 44 42 40 38 35 33 29 28 27 26 25 23 22 20 19 18
56 58 59 60 61 61 62 63 63 62 60 59 57 56 54 52 50 48 47 45 44 43 42 39 37 34 32 29 26 25 24 22 21 20 19 17 16 14
57 59 60 60 61 61 62 62 61 59 58 57 55 53 51 49 47 46 45 43 41 39 38 36 34 31 28 25 24 22 22 20 19 17 16 14 13 11
59 60 60 60 60 60 60 60 59 58 56 55 52 50 47 46 44 43 41 40 38 36 34 32 30 27 25 23 22 21 20 18 16 15 13 12 11 10
60 61 60 61 60 60 59 58 57 55 54 51 49 46 44 42 40 39 38 37 36 34 31 29 26 24 23 22 20 19 17 16 14 13 11 10 9 8
61 61 61 60 59 59 57 56 54 52 49 47 45 43 40 38 37 37 36 34 33 31 28 26 23 22 21 20 18 17 16 14 12 11 10 8 7 5
61 61 60 59 58 56 54 52 50 48 45 44 42 40 37 36 35 34 33 32 30 27 25 23 21 20 19 17 16 15 14 12 10 8 7 6 4 3
60 59 58 57 55 53 51 49 47 45 43 41 39 37 35 34 33 32 31 29 27 24 22 21 19 18 17 15 14 13 12 10 8 7 5 3 2 2
59 58 56 54 52 50 48 46 44 42 40 39 37 35 33 32 31 30 29 27 24 22 20 18 17 16 15 13 12 12 10 8 7 5 3 2 1 0

GEFSNE_500_meanwind_150.txt.gz
Wind_Speed
37 38 38 39 40 41 42 44 45 45 46 47 49 50 51 52 53 54 55 56 57 57 58 59 59 60 61 61 62 62 62 62 62 63 64 64 64 65
37 38 39 40 41 42 44 45 46 48 49 50 51 53 54 55 56 57 58 58 59 59 61 62 62 62 63 63 62 62 62 63 63 64 65 65 66 66
38 39 40 41 43 44 45 46 48 50 51 51 53 55 56 57 58 59 60 61 62 63 64 64 64 64 64 63 62 62 63 64 64 64 65 65 65 66
39 40 42 43 44 45 47 48 50 51 53 53 55 56 58 59 61 62 63 64 64 65 65 65 64 64 63 62 62 63 63 63 62 62 62 62 63 63
40 41 43 44 45 46 48 49 51 53 55 56 57 58 60 61 62 63 63 64 65 65 64 64 64 63 63 63 63 62 62 61 60 59 59 59 59 59
41 42 44 45 46 47 49 51 53 55 57 58 59 60 61 61 62 62 63 64 64 64 64 64 63 63 62 61 61 60 59 59 58 57 56 55 55 55
42 43 44 45 47 49 50 52 54 56 58 59 60 61 61 61 62 63 64 63 62 62 62 61 61 60 59 58 58 57 57 55 54 52 52 51 52 52
43 44 45 46 48 50 52 54 56 58 59 60 60 61 61 62 63 64 64 62 61 61 60 59 58 57 57 56 55 55 53 52 51 50 49 49 49 48
43 44 45 47 49 51 53 55 57 58 60 61 61 61 62 63 64 64 63 62 60 59 58 57 57 56 55 53 52 51 50 49 48 46 45 44 44 44
44 45 46 48 51 52 54 56 58 60 61 61 61 62 62 63 64 63 61 60 59 58 58 57 55 54 52 50 49 48 47 45 43 41 40 40 39 39
45 46 48 50 52 54 55 57 59 60 60 60 61 62 63 64 63 61 60 59 58 58 57 56 53 51 49 48 46 44 43 41 39 38 37 36 35 34
46 47 49 51 53 54 56 58 59 59 59 60 62 63 63 62 61 60 60 59 58 56 54 52 50 48 46 45 44 42 40 38 37 35 34 33 32 30
46 48 49 51 53 55 56 58 59 59 59 61 62 62 62 60 59 59 58 56 55 53 50 47 46 45 43 41 39 38 36 34 33 32 30 29 28 27
47 48 50 52 53 55 56 58 58 59 60 61 62 61 59 58 56 55 54 53 51 48 46 45 43 41 39 37 35 34 32 30 29 28 27 25 25 23
48 49 51 52 54 55 57 58 59 60 60 60 60 58 57 55 54 52 50 48 47 45 43 41 39 36 35 33 31 31 29 27 26 25 24 23 21 20
48 50 51 53 54 56 57 59 59 60 59 59 58 56 54 52 51 49 47 45 44 42 40 37 35 33 32 30 29 27 26 25 24 23 22 21 19 18
49 50 52 53 55 57 58 59 59 59 58 57 55 52 50 49 48 46 44 42 40 38 36 34 32 30 29 28 26 25 24 23 22 21 20 18 17 15
50 51 53 54 56 57 59 59 58 57 56 54 51 49 48 46 45 43 41 40 38 36 34 32 30 29 28 26 24 23 22 20 20 19 17 16 15 14
50 52 53 55 56 58 58 58 57 55 54 51 49 47 45 44 42 41 40 38 35 34 32 30 29 28 26 24 22 21 19 19 18 17 15 14 13 12
51 53 54 55 56 57 58 57 55 53 51 49 46 45 43 42 41 40 38 35 33 32 30 28 27 26 24 22 20 19 17 17 16 15 13 12 11 11
52 53 54 55 56 57 57 55 52 50 49 46 44 43 41 40 39 38 36 33 31 29 28 27 26 24 21 20 19 17 16 15 14 13 12 10 10 9
53 54 54 55 56 56 54 52 50 48 46 44 42 41 40 39 37 35 33 31 29 27 26 25 24 22 20 19 17 16 16 15 13 12 10 8 8 7
53 54 54 55 55 54 51 49 48 46 44 42 40 39 38 37 35 33 31 28 27 26 25 24 22 20 18 17 16 15 15 13 12 11 9 7 6 5

GEFSNE_500_meanwind_156.txt.gz
Wind_Speed
37 38 39 39 40 41 42 43 43 43 44 45 47 48 50 51 53 54 56 57 58 60 61 61 61 61 61 61 61 61 61 61 60 60 59 58 58 58
38 38 39 40 41 42 43 44 44 45 46 47 49 50 52 53 55 57 59 60 62 62 62 62 62 62 61 61 61 61 60 60 59 59 58 58 58 58
38 39 40 41 41 43 43 44 45 46 47 49 51 52 54 56 58 60 61 63 63 63 63 62 62 62 62 61 61 60 59 59 58 58 57 57 58 58
39 40 41 42 42 43 44 45 47 48 49 50 52 54 56 58 60 62 63 63 63 63 62 62 62 62 61 60 59 59 58 58 57 56 56 56 56 56
39 40 41 42 43 44 45 47 48 49 51 52 54 56 58 60 61 62 62 62 62 63 62 62 61 60 60 59 58 58 57 56 56 55 54 54 54 53
40 41 42 43 44 45 46 48 49 50 52 54 56 57 59 60 62 62 61 62 63 63 62 61 60 59 58 58 57 56 56 55 54 53 53 52 50 49
40 41 42 43 45 46 47 48 50 51 53 55 57 58 59 61 61 62 62 62 62 61 60 59 58 57 57 56 55 55 54 53 52 51 50 49 48 46
41 42 43 44 46 47 48 49 51 53 55 57 58 59 59 61 61 62 63 62 60 58 57 56 56 55 54 54 54 54 52 51 49 48 47 46 45 44
41 42 43 45 46 47 48 50 52 54 56 57 58 59 60 61 62 63 62 61 59 57 56 55 54 53 53 52 52 50 48 46 44 43 42 41 39 39
42 43 44 45 46 47 49 51 53 55 56 58 58 60 61 62 62 62 61 59 58 57 55 53 52 52 51 50 47 45 43 42 41 40 39 38 37 36
42 43 44 45 46 48 50 52 53 55 56 57 58 60 61 62 62 61 59 57 55 53 53 52 51 49 48 46 44 42 41 40 39 38 37 36 35 34
42 43 44 45 47 49 50 52 53 54 55 57 59 60 62 62 61 59 57 55 53 51 50 50 49 47 44 43 42 40 39 38 37 36 35 33 32 31
42 44 45 46 47 49 51 52 53 54 55 57 59 60 61 61 59 57 55 53 52 51 50 49 47 45 44 42 40 39 37 36 35 34 33 31 30 28
42 43 45 46 48 49 51 52 53 54 56 58 59 60 60 59 56 55 53 52 50 49 49 48 46 44 43 41 39 36 35 34 33 32 31 29 27 25
42 44 45 46 48 49 51 52 54 55 57 58 59 60 59 56 55 53 51 50 49 49 48 46 45 43 42 40 36 34 33 32 31 29 28 26 24 22
43 44 45 47 48 50 51 52 54 56 58 59 59 59 56 54 53 51 49 48 48 48 47 45 43 41 40 37 35 33 32 30 29 27 25 24 22 20
43 44 45 47 49 50 52 53 55 57 58 59 58 57 55 52 51 49 48 47 46 45 44 42 41 40 37 35 33 31 30 29 27 25 23 22 20 19
43 44 46 48 50 51 52 53 55 57 58 58 57 55 53 51 49 48 47 46 45 43 41 40 38 37 35 34 32 30 29 27 26 23 21 19 19 18
44 45 47 48 50 51 52 54 55 57 57 56 55 53 51 49 48 46 45 44 43 41 40 38 36 34 32 31 30 28 27 25 23 21 19 18 17 17
44 46 47 49 50 51 53 54 55 56 55 55 53 51 49 48 46 45 44 42 41 40 38 37 34 32 30 28 27 26 25 23 21 20 18 17 16 16
45 46 47 49 50 52 53 54 55 55 54 53 52 49 47 46 45 44 42 40 39 37 36 34 33 31 29 27 26 25 23 21 20 18 17 16 15 15
45 46 47 49 50 51 53 54 54 54 53 52 50 47 45 44 43 42 40 38 36 35 34 33 31 28 26 25 24 23 22 20 18 17 15 14 13 12
45 46 47 48 50 51 52 53 53 53 51 50 48 45 44 43 41 39 37 36 35 34 32 31 28 26 25 23 22 21 20 18 17 16 14 13 12 11

GEFSNE_500_meanwind_162.txt.gz
Wind_Speed
37 37 38 38 39 40 41 41 42 42 43 44 46 47 48 49 51 52 54 56 57 59 61 61 62 62 61 60 60 59 59 58 57 56 56 56 56 57
37 38 38 39 40 41 41 42 43 44 44 45 46 47 49 50 52 54 55 57 59 61 61 62 62 61 60 60 60 59 58 56 55 54 55 55 55 55
37 38 39 40 40 41 42 42 44 44 45 46 47 48 50 51 53 55 58 60 61 61 62 62 61 60 60 59 57 56 55 54 54 53 53 53 53 53
38 39 39 40 41 41 42 43 44 45 46 47 48 49 51 53 55 57 59 61 61 62 62 61 60 59 58 56 56 55 55 53 52 52 52 51 51 50
39 39 40 40 41 41 42 43 45 46 47 48 49 50 52 54 56 58 60 61 61 62 61 60 58 57 57 56 56 55 54 52 51 51 51 50 49 47
40 40 40 41 41 42 43 44 45 46 48 49 50 51 53 55 57 58 59 60 60 61 60 58 57 57 56 55 54 53 52 51 50 50 48 47 45 44
40 40 40 41 42 42 43 45 46 47 48 50 51 52 54 55 57 58 59 59 59 59 58 57 57 56 55 53 52 51 50 49 48 47 46 44 42 42
41 41 41 41 42 43 44 45 46 48 49 50 51 53 54 56 57 58 59 59 58 57 56 56 55 54 53 52 51 50 49 48 47 46 44 42 42 41
41 41 41 42 42 43 44 45 47 48 49 51 52 53 55 56 58 59 59 58 57 56 55 54 54 53 51 50 50 49 48 47 46 44 42 41 40 39
40 40 41 42 43 43 44 45 47 49 50 51 52 54 55 57 58 58 58 57 57 56 55 53 52 52 51 50 49 48 48 46 45 43 41 40 39 37
40 40 41 42 43 43 45 46 48 49 50 51 52 54 56 57 58 58 57 56 55 55 54 52 51 51 50 49 49 48 47 45 43 41 40 39 37 35
40 41 41 42 43 44 45 46 47 48 49 51 52 54 56 57 57 57 56 56 55 53 52 52 51 50 49 48 48 47 46 44 41 40 39 37 35 33
39 41 41 42 43 44 45 46 47 48 49 50 52 54 55 57 57 56 56 55 54 53 52 51 51 50 48 46 46 46 45 43 40 39 37 35 33 31
39 40 41 42 43 44 45 46 47 48 49 50 52 54 55 56 56 55 55 54 53 53 52 51 50 49 47 46 45 44 43 41 38 36 35 32 30 28
39 40 41 42 43 44 45 46 46 48 49 50 52 54 55 55 55 55 54 54 53 53 52 51 50 48 47 45 43 42 41 39 36 33 31 29 27 26
39 40 41 42 43 44 44 45 46 47 48 50 52 54 55 54 54 54 53 53 53 53 51 50 49 47 45 43 42 40 38 35 32 30 28 26 24 23
39 40 41 42 42 43 44 45 46 47 48 50 52 54 54 54 53 53 52 52 52 51 50 49 48 46 43 41 40 38 35 32 29 27 25 24 22 21
38 40 41 41 42 43 43 44 45 46 48 50 52 53 54 53 53 52 52 51 50 49 47 46 45 44 43 40 37 35 32 29 26 25 23 22 21 20
39 40 40 41 42 42 43 43 44 46 47 50 52 53 53 52 52 51 51 50 49 48 46 45 43 42 40 37 34 32 29 27 25 23 22 21 20 19
39 40 40 41 42 42 42 43 44 46 48 51 52 53 52 52 51 50 49 49 48 46 45 43 41 39 37 34 31 29 26 24 22 22 21 20 19 18
39 39 40 41 41 41 42 43 44 46 49 51 52 52 52 51 50 49 48 48 46 44 42 41 39 37 34 31 29 27 25 22 21 20 20 19 18 17
39 39 39 39 40 40 41 43 45 47 50 51 52 52 51 50 49 48 47 46 44 42 40 39 37 34 31 28 26 25 23 21 20 19 18 17 16 14
38 38 38 38 39 40 42 44 46 48 50 51 51 51 50 49 48 47 46 44 42 40 38 37 34 31 28 26 24 23 21 20 18 17 16 15 14 14

GEFSNE_500_meanwind_168.txt.gz
Wind_Speed
39 40 41 41 41 42 42 43 44 44 44 45 46 48 50 51 52 54 54 55 56 57 57 58 59 59 59 59 58 58 57 56 55 55 54 53 52 51
40 41 41 42 42 42 43 43 44 45 45 45 47 49 51 52 53 55 56 56 57 57 57 58 59 58 58 58 58 57 56 55 54 54 53 52 51 50
41 41 41 42 42 42 43 43 44 45 46 46 48 50 51 53 54 55 56 56 56 57 57 58 58 58 57 57 57 56 55 54 54 53 52 51 50 49
41 41 42 42 42 42 42 43 44 45 46 47 48 50 52 54 54 55 55 56 56 56 57 57 58 58 57 57 56 56 55 55 54 53 52 51 49 48
41 41 42 42 42 42 42 43 44 45 46 47 48 51 52 53 54 54 55 55 56 56 57 58 58 57 57 57 56 56 55 55 53 52 51 49 48 47
41 41 42 42 42 42 43 44 45 45 46 48 49 51 52 52 53 54 54 55 56 57 58 58 58 58 57 57 57 56 55 54 53 52 50 48 47 47
41 41 41 42 42 42 43 44 45 45 47 48 49 50 51 52 53 53 54 55 56 57 58 58 59 58 57 57 56 56 55 54 53 51 49 47 47 45
41 41 42 42 42 42 44 44 45 45 47 48 49 50 51 52 52 54 55 55 55 56 57 58 59 58 57 56 56 56 55 53 52 50 48 47 45 43
42 42 42 41 41 42 43 44 44 46 47 48 49 50 50 51 53 54 54 55 55 56 57 58 58 57 57 57 57 56 54 52 51 49 47 45 44 41
41 42 41 41 41 41 42 43 44 46 47 48 49 50 50 51 53 53 53 54 55 57 58 57 57 57 58 58 58 56 54 51 49 48 46 44 42 40
41 40 40 40 40 41 42 43 44 45 46 47 49 49 50 52 52 53 53 54 56 57 57 57 56 57 57 58 57 56 53 50 48 46 44 42 40 38
40 39 39 40 41 42 42 43 43 44 45 47 48 49 50 52 52 52 53 55 56 56 56 56 57 57 56 56 55 53 51 48 47 45 43 40 38 36
39 39 39 40 40 41 41 42 43 44 45 46 48 48 50 51 52 52 53 55 56 56 55 56 56 57 57 55 53 51 48 46 45 43 41 39 36 34
38 39 39 39 40 40 41 41 42 43 45 46 47 48 50 51 52 52 53 54 55 55 55 56 56 56 56 54 51 49 46 44 42 41 39 37 34 32
38 38 38 38 39 40 40 41 42 43 44 45 47 48 50 51 52 52 53 54 54 55 55 56 56 56 55 53 50 46 43 42 41 39 37 34 32 30
37 37 37 37 38 39 39 40 41 42 44 45 46 48 50 51 51 51 52 53 54 55 56 55 55 55 54 51 48 45 43 41 39 37 35 33 30 28
36 37 37 37 37 38 38 39 41 42 44 45 46 48 49 50 50 50 51 53 53 54 54 54 54 53 52 49 46 43 42 40 38 35 33 31 29 26
36 36 36 36 37 37 38 39 40 41 43 45 46 48 49 49 49 50 51 52 53 53 52 52 51 51 50 47 44 42 40 39 37 34 31 28 26 24
35 35 35 35 36 36 38 39 40 41 43 45 46 47 48 48 49 50 51 52 52 52 51 50 50 49 47 45 42 40 38 37 35 32 29 26 25 24
34 34 34 35 35 36 37 38 40 41 43 44 45 46 47 48 49 50 51 51 50 50 50 49 48 47 45 42 40 38 36 34 32 30 27 25 24 23
33 34 34 34 35 36 37 38 39 40 41 43 44 46 47 48 49 49 50 50 50 49 48 47 47 46 44 41 38 37 35 32 30 27 25 24 23 22
33 34 34 34 35 36 37 37 38 39 41 42 44 46 47 47 48 48 49 49 49 48 47 46 45 44 42 39 36 34 33 32 29 26 24 23 21 20
33 33 34 34 34 35 36 36 37 39 41 42 45 46 47 47 47 48 48 48 47 46 45 45 44 43 40 37 34 32 31 29 27 25 24 22 21 19

GEFSNE_500_meanwind_174.txt.gz
Wind_Speed
36 36 36 37 37 38 40 41 42 42 42 44 45 46 46 47 47 48 49 51 52 52 52 53 53 53 53 54 54 55 55 54 53 53 52 52 52 51
37 38 38 38 39 40 41 42 43 43 43 44 45 46 46 47 48 49 51 52 52 51 52 53 52 53 53 54 55 55 54 53 52 53 52 52 52 51
38 38 39 39 40 41 42 43 43 43 43 44 45 46 47 47 48 49 51 51 51 51 52 51 51 52 53 55 55 55 53 53 53 53 52 52 51 50
39 39 40 41 41 42 42 42 43 44 44 44 45 46 47 48 49 50 51 51 51 51 50 50 51 52 54 55 55 54 53 53 54 54 53 53 51 49
40 40 40 41 41 42 42 43 44 44 44 44 45 46 47 48 49 50 50 51 50 50 50 50 51 53 54 55 55 54 54 54 55 54 54 52 50 48
40 40 40 41 41 42 42 43 44 44 44 44 45 46 47 47 48 48 49 50 49 50 50 50 52 53 55 55 55 55 55 55 55 55 54 52 49 47
40 40 41 41 41 42 43 44 44 44 45 45 46 46 46 46 47 47 48 49 48 49 50 51 52 54 55 55 55 55 55 56 55 54 53 51 48 46
41 41 41 41 42 43 44 44 45 45 45 45 46 46 46 46 46 47 48 48 48 48 50 51 53 54 55 55 55 55 56 56 55 54 52 49 47 45
41 41 40 41 42 43 44 44 44 45 45 45 45 45 44 45 46 47 47 47 47 48 50 51 53 54 55 56 56 56 56 56 55 53 50 48 45 43
41 41 41 42 43 43 43 44 43 44 44 44 43 44 44 44 45 46 46 47 47 49 50 51 52 54 55 56 56 56 56 55 53 51 48 45 43 41
42 42 42 42 42 43 43 43 43 43 43 43 43 43 43 43 45 45 46 46 47 48 49 51 52 54 55 56 56 56 55 54 51 48 46 44 42 40
42 42 41 42 42 43 43 43 43 42 42 42 42 42 42 43 44 45 45 46 47 48 49 51 52 53 55 55 55 55 54 52 49 47 45 43 41 40
42 41 41 42 42 42 42 42 42 42 41 41 41 41 41 42 44 45 45 45 47 48 49 50 52 54 55 54 54 54 53 50 48 46 44 42 40 38
41 41 42 42 42 42 42 42 41 41 41 40 40 40 41 42 43 44 45 45 47 48 49 50 52 53 54 53 53 54 52 49 46 44 42 40 39 37
41 41 42 42 42 42 42 41 40 40 40 39 39 40 41 42 43 44 44 46 47 48 49 51 52 52 53 53 53 53 50 47 44 42 40 39 38 36
42 42 42 41 41 41 39 39 38 38 38 38 38 40 41 41 42 43 44 46 47 49 49 50 50 52 53 52 53 52 49 46 43 41 40 39 38 35
41 41 40 40 39 38 37 37 37 37 37 37 38 39 40 41 42 43 44 45 47 48 48 48 49 51 52 52 51 50 48 45 42 40 39 38 36 34
41 40 39 38 37 36 37 36 36 36 37 37 38 39 39 40 41 42 44 45 46 47 47 47 48 50 51 51 50 49 46 44 42 39 38 36 35 33
38 37 37 36 35 35 36 36 36 36 36 36 37 38 38 39 41 43 44 45 46 45 45 46 48 49 50 50 49 47 45 42 41 39 37 35 33 31
36 36 35 34 34 34 34 34 35 35 35 36 37 37 38 39 41 43 44 44 44 44 45 46 47 49 50 50 48 45 43 41 39 38 36 33 32 30
35 34 34 33 34 34 33 33 34 34 35 36 36 37 38 40 42 43 44 43 43 44 44 46 47 48 49 49 47 44 42 40 38 35 33 31 29 27
35 34 33 32 33 33 32 32 33 33 34 35 35 37 38 40 41 42 42 42 42 43 45 46 48 48 48 47 45 43 41 39 37 33 30 28 26 24
34 33 32 31 32 32 31 32 32 32 33 34 35 36 38 39 40 41 41 42 42 44 46 46 47 47 47 45 44 41 39 37 34 32 28 25 23 23

GEFSNE_500_meanwind_180.txt.gz
Wind_Speed
38 38 37 37 37 37 37 38 38 38 39 40 41 43 44 45 46 47 48 49 49 50 51 52 52 51 51 51 51 52 52 54 55 55 54 54 54 52
39 39 38 38 38 38 38 39 39 39 40 40 42 43 45 46 47 48 48 49 49 50 51 51 51 50 50 51 52 52 53 54 54 54 54 54 54 51
40 39 38 38 39 39 39 39 39 40 41 41 42 44 46 47 47 47 48 48 49 50 50 50 50 50 50 52 52 53 53 53 54 54 54 54 53 50
41 40 39 39 39 39 39 40 40 41 42 42 44 45 46 47 47 47 48 48 49 50 50 49 48 49 50 52 52 52 53 54 53 54 54 54 52 49
41 41 40 40 40 39 40 40 41 41 42 43 44 45 46 46 47 47 48 48 49 50 49 48 48 49 51 51 52 52 53 53 53 54 54 53 51 49
42 41 41 41 40 40 41 41 41 42 43 44 44 45 45 45 46 47 47 48 48 49 48 47 48 49 50 51 52 52 52 52 53 53 53 52 51 50
42 42 42 41 41 41 41 41 41 42 43 44 44 45 45 45 45 46 47 47 47 48 48 48 48 49 49 50 51 51 51 52 52 53 53 52 51 50
43 42 42 42 41 41 41 41 42 42 43 43 44 44 44 44 44 45 46 46 46 47 47 47 48 48 49 49 50 50 51 52 53 54 53 52 51 50
44 43 43 43 42 42 42 42 42 43 43 43 43 43 43 43 44 45 45 46 46 46 46 46 47 48 48 49 49 50 51 52 53 53 53 52 51 49
44 43 43 43 42 41 42 43 43 43 43 43 43 42 42 42 43 44 44 45 46 45 45 45 46 47 48 49 49 50 51 52 53 53 52 51 49 48
44 43 43 42 42 42 43 43 43 43 42 42 41 41 41 41 42 42 43 44 44 45 44 45 45 46 47 48 49 50 51 52 52 52 51 50 49 48
45 44 43 42 42 42 43 43 42 42 42 41 41 41 41 41 41 41 42 43 44 44 44 44 45 46 47 48 49 50 51 51 52 52 51 50 49 47
44 44 43 42 42 42 43 43 42 42 42 41 41 41 40 40 40 41 42 43 44 43 43 44 45 46 47 47 48 49 50 51 51 51 50 49 48 46
44 43 43 43 43 42 42 42 42 42 41 40 40 39 39 39 40 40 42 43 43 43 43 44 45 45 46 47 47 48 50 51 51 50 49 48 47 45
43 43 42 42 42 41 41 41 40 40 40 40 39 38 38 39 39 40 42 43 43 43 43 44 45 45 45 45 46 47 49 50 50 50 48 47 45 44
44 43 42 41 40 40 39 39 39 39 39 39 38 38 39 39 39 40 41 43 43 43 43 43 43 44 44 45 46 48 49 49 49 49 48 46 45 43
44 43 42 40 40 40 40 39 39 39 39 38 38 37 37 38 39 40 41 42 42 42 42 42 42 43 44 45 46 47 48 49 49 48 47 45 44 43
42 41 40 40 39 39 38 38 38 38 38 38 37 36 36 37 38 39 40 40 41 41 41 41 42 43 44 45 46 47 47 48 48 49 47 45 43 42
42 41 40 38 38 38 38 37 37 37 36 35 34 33 34 35 37 38 39 40 40 40 40 40 41 43 44 46 46 47 47 48 48 48 47 44 42 41
41 40 39 38 37 37 36 35 34 34 33 33 32 32 33 34 36 36 37 39 39 40 40 41 42 43 44 45 46 47 48 48 48 47 46 44 42 39
39 38 37 37 36 35 34 34 33 33 33 33 33 33 33 34 35 36 37 38 38 39 40 41 42 43 44 46 47 47 48 49 47 46 44 42 39 37
37 36 36 35 35 35 34 34 34 34 33 33 33 33 33 34 34 35 36 37 38 38 40 41 42 43 44 46 46 47 48 48 48 46 44 41 37 33
35 34 35 35 35 34 33 33 33 33 32 32 32 33 33 34 34 35 35 36 37 39 40 41 42 43 45 45 46 47 47 47 46 45 43 39 35 31

GEFSNE_500_meanwind_186.txt.gz
Wind_Speed
44 43 41 40 40 39 39 38 38 38 37 37 37 38 38 39 40 41 42 44 45 46 47 48 48 48 48 48 47 47 47 46 46 47 48 48 49 50
44 44 43 41 41 40 40 39 39 39 38 37 37 38 39 40 41 42 43 44 45 46 47 48 48 48 48 47 47 46 45 45 46 46 48 48 49 50
45 44 43 42 42 41 41 40 40 40 39 39 39 39 40 41 42 43 44 44 45 46 47 48 48 48 47 46 45 45 44 45 45 47 48 49 50 51
46 45 43 43 43 42 42 41 41 41 41 40 40 40 40 41 42 43 44 44 45 46 47 47 47 47 46 45 44 43 43 44 46 47 48 49 51 51
46 45 44 43 43 42 42 42 42 42 41 41 40 41 41 41 42 43 44 44 45 46 46 46 46 45 44 43 43 43 43 45 46 48 49 50 51 52
45 46 45 44 43 43 43 42 42 42 42 41 41 41 41 41 42 43 43 44 45 45 46 45 45 44 44 44 43 43 44 45 47 48 49 50 51 52
45 44 43 43 43 43 43 42 42 42 42 42 41 41 40 41 42 42 43 43 44 45 45 45 44 44 44 43 43 43 44 46 47 49 50 51 52 52
46 44 44 44 44 43 43 43 42 42 42 42 41 41 41 42 42 42 42 43 44 44 44 44 43 43 43 42 43 43 45 46 48 49 50 51 51 51
45 45 45 44 45 44 44 43 43 42 42 42 41 41 41 42 42 42 42 43 43 44 44 43 43 42 42 43 43 44 45 46 48 49 50 50 51 50
45 45 45 45 44 44 43 43 42 42 42 42 41 41 42 42 42 42 42 43 43 43 43 42 42 43 43 42 43 43 45 46 47 49 50 50 50 49
46 45 45 44 44 43 43 42 42 42 41 41 40 41 42 42 42 42 42 43 43 42 42 42 42 43 43 42 42 43 45 46 47 48 49 49 49 49
46 46 45 44 44 43 42 41 41 41 41 40 39 40 41 41 42 42 41 41 40 40 41 41 42 42 42 42 42 43 45 46 47 49 49 49 49 49
46 45 44 44 44 43 43 42 41 41 40 39 39 39 40 39 40 40 39 39 40 40 40 41 41 41 41 41 42 43 44 46 47 49 49 49 49 49
45 44 44 43 43 43 43 42 41 40 39 39 39 39 39 39 39 38 38 38 39 40 40 41 40 40 40 41 42 43 44 46 47 48 49 49 49 49
44 44 43 43 43 42 42 42 42 41 40 39 39 39 38 38 38 38 37 38 39 39 39 39 39 39 40 40 41 42 43 45 47 48 49 49 49 48
45 44 43 43 42 42 42 42 41 41 40 39 39 38 37 37 37 37 36 37 38 38 38 38 38 39 39 41 42 42 43 45 47 49 49 48 48 47
45 45 44 43 42 42 42 41 40 39 39 39 38 36 36 36 36 35 35 36 37 37 37 38 38 38 38 40 41 42 43 45 47 48 48 47 47 46
44 43 42 42 41 40 39 39 38 38 37 37 36 36 35 36 35 34 34 35 36 36 37 37 37 37 38 39 40 42 44 46 47 47 46 45 45 45
42 41 41 41 40 39 38 38 37 38 38 38 37 36 36 35 34 33 34 35 36 36 35 36 35 36 37 39 41 42 44 45 46 45 44 44 44 43
41 39 38 39 39 38 38 37 37 38 38 37 36 35 35 34 33 33 34 34 34 34 34 34 34 35 37 38 41 43 45 44 43 42 42 43 42 41
39 38 38 37 37 36 37 37 36 35 35 35 34 33 32 32 31 32 33 33 33 33 33 34 35 35 37 38 41 43 43 42 40 40 40 40 40 39
38 38 38 37 35 34 34 34 34 34 34 34 33 32 31 31 31 31 32 32 32 32 33 34 35 35 37 38 40 42 41 40 39 39 38 38 38 35
37 36 35 34 34 34 33 33 33 33 33 33 32 32 31 30 30 31 31 31 30 31 32 33 34 36 37 39 40 40 39 38 37 37 38 37 35 33

GEFSNE_500_meanwind_192.txt.gz
Wind_Speed
51 50 49 48 47 47 46 45 45 44 42 42 42 41 41 41 41 41 41 41 41 42 42 43 43 44 44 45 45 46 46 45 45 45 45 46 46 46
51 50 49 48 47 47 46 46 45 44 43 42 42 42 41 42 42 42 42 42 42 43 43 43 43 44 44 45 45 46 46 45 45 45 46 46 45 46
51 50 49 48 48 47 47 47 46 45 44 43 43 42 42 42 42 42 42 42 43 43 43 43 44 44 45 44 45 46 46 45 45 45 45 45 45 46
51 49 48 48 48 47 47 46 45 45 44 44 43 42 42 42 41 42 42 42 42 43 43 44 44 44 45 44 45 45 45 45 44 44 44 45 46 46
51 49 48 48 47 46 46 45 45 44 44 44 43 42 42 41 41 41 41 42 42 43 43 44 44 45 44 44 44 45 45 44 44 44 44 45 46 47
51 50 49 48 47 46 45 44 45 44 44 44 44 42 42 41 41 41 41 42 42 43 43 43 44 45 44 44 44 44 44 44 44 44 45 46 46 47
50 50 50 50 48 47 47 45 45 45 45 44 43 43 41 40 40 40 40 41 42 43 43 43 44 44 44 44 43 43 43 44 44 45 45 46 46 47
49 50 49 50 49 48 47 46 45 45 45 45 44 44 42 41 41 41 40 41 42 42 43 43 45 45 44 44 43 43 44 44 45 45 45 46 46 48
48 49 49 49 49 47 46 46 45 45 45 44 44 43 42 42 42 42 42 42 41 42 42 43 44 45 44 43 42 43 44 44 45 45 45 46 47 48
46 47 49 49 48 47 46 45 45 44 44 43 43 42 42 42 43 43 44 43 42 42 42 43 44 44 43 42 43 43 44 44 45 45 46 47 47 48
44 46 46 47 47 47 45 45 44 43 43 43 42 42 42 43 43 43 43 43 43 43 43 44 44 44 42 42 42 42 43 45 45 45 46 46 48 48
44 44 44 45 46 46 45 44 43 42 42 42 42 42 42 43 42 42 42 42 42 42 42 43 42 43 41 41 41 42 44 44 45 46 45 46 48 47
45 45 44 45 44 44 44 43 42 42 42 41 41 41 41 41 41 41 41 41 40 41 41 41 41 40 40 39 40 41 43 44 45 45 45 46 46 44
44 44 44 44 44 43 43 42 42 42 42 41 41 41 40 40 40 40 40 39 39 39 40 40 40 40 39 39 39 41 43 44 44 44 44 44 42 41
43 43 43 43 43 43 42 42 42 42 43 42 41 40 40 39 39 39 39 38 38 38 38 39 39 39 39 39 39 40 42 42 42 42 42 41 39 39
42 41 42 42 43 42 42 41 41 42 42 41 40 39 40 39 38 39 39 38 38 38 37 38 38 37 37 38 39 40 40 41 41 40 39 38 38 38
42 42 41 42 41 41 41 41 40 40 39 39 39 39 39 38 38 38 38 37 37 36 36 37 36 36 36 37 38 39 40 40 38 37 37 37 37 38
42 41 40 41 41 41 40 40 39 38 38 38 38 38 38 37 36 36 35 35 36 35 35 35 35 36 36 36 37 38 38 37 35 35 36 36 36 37
42 40 40 40 39 39 39 39 38 37 36 36 35 35 35 34 34 33 33 32 33 34 34 34 34 35 35 35 36 36 35 34 34 34 34 35 35 36
42 40 39 39 39 38 38 37 37 36 36 34 34 33 33 32 32 32 32 32 32 32 33 33 33 34 34 35 35 34 33 32 32 33 34 34 35 35
42 41 39 38 38 37 36 36 35 34 34 33 32 32 31 31 31 31 32 31 31 32 31 32 33 33 33 33 33 32 31 31 31 32 33 34 34 34
40 40 39 38 37 36 35 35 34 33 33 32 32 31 30 30 30 30 30 30 30 30 30 31 31 31 31 30 30 30 30 30 31 32 32 32 32 32
39 39 39 37 35 34 34 33 32 32 31 31 31 30 29 28 28 28 28 28 28 28 29 29 29 29 29 28 29 29 29 29 30 30 30 31 31 31

GEFSNE_500_meanwind_198.txt.gz
Wind_Speed
58 57 57 56 56 54 53 53 52 51 50 48 48 47 47 47 46 45 44 44 43 43 42 42 42 42 42 42 42 42 42 42 42 43 44 43 43 43
56 56 56 55 56 55 53 52 51 50 49 47 47 46 46 46 46 45 45 44 43 43 43 43 43 42 42 42 42 42 42 42 42 42 43 43 42 43
56 56 56 56 56 55 54 52 51 50 50 48 47 46 46 45 45 45 45 44 43 43 43 43 43 42 42 42 43 42 42 42 42 42 43 44 44 44
56 56 56 56 55 54 53 52 50 50 50 49 47 46 46 45 45 45 44 44 43 43 43 43 43 42 42 42 43 43 42 42 42 42 44 44 43 44
56 56 56 55 53 53 52 51 50 49 49 49 48 47 46 45 45 45 44 43 43 43 43 43 42 42 43 43 43 42 42 41 42 43 44 43 43 44
55 55 55 53 52 52 51 50 50 49 48 48 47 47 46 45 44 44 43 43 42 42 42 42 42 42 42 43 42 42 41 41 42 42 43 43 44 44
53 54 53 52 50 50 50 49 49 48 48 47 47 47 45 45 45 45 44 43 42 42 42 42 43 42 42 42 42 41 41 42 42 42 42 43 44 44
51 52 52 51 50 50 49 48 48 48 48 48 48 47 45 45 45 44 44 43 42 42 43 43 43 42 42 41 41 41 41 41 42 42 42 43 43 44
49 50 51 50 48 49 48 48 47 46 47 47 47 46 45 45 45 44 44 44 43 43 43 43 42 42 41 41 40 40 41 42 42 42 42 43 43 43
47 48 49 49 48 48 48 48 47 46 45 45 45 45 45 44 44 44 43 42 42 42 42 42 41 41 40 39 40 41 41 41 42 42 42 43 43 43
44 45 47 46 46 47 48 47 45 44 44 44 44 44 44 44 44 43 42 42 41 41 41 42 41 40 39 39 40 40 41 42 42 42 42 43 42 41
43 44 45 44 45 45 45 45 44 44 44 44 44 44 43 42 42 42 42 42 41 40 40 40 40 40 40 40 40 40 41 42 42 42 42 40 39 39
42 43 44 44 44 43 43 43 43 43 42 42 42 42 41 40 40 40 40 40 40 40 39 39 39 39 40 40 39 40 41 41 41 40 39 38 38 38
42 41 42 43 43 43 43 42 41 41 41 40 41 40 38 38 38 38 39 39 38 38 37 37 37 38 38 39 39 39 39 40 39 38 37 37 37 37
42 41 41 42 41 41 41 41 40 40 39 39 38 37 37 37 38 37 38 38 37 37 36 35 36 36 37 38 37 37 37 37 36 36 36 36 35 35
40 39 40 41 41 41 40 40 39 38 38 37 36 36 36 36 36 36 37 36 36 35 34 34 33 34 35 35 36 35 35 34 33 34 34 34 34 34
39 38 39 41 41 40 39 38 37 36 36 35 35 35 34 34 34 35 35 35 34 33 33 32 31 32 33 34 34 33 32 32 32 33 33 33 33 33
37 37 38 39 39 37 36 35 35 35 35 34 34 33 33 33 33 33 33 32 32 31 31 31 31 31 32 32 31 31 30 31 31 32 32 32 32 32
35 36 36 37 37 36 35 35 35 34 34 33 32 33 33 33 33 33 31 30 30 30 30 30 30 30 29 28 27 28 29 29 30 30 30 30 30 30
33 35 36 36 35 36 35 34 33 33 33 32 32 33 33 32 32 31 30 29 29 28 28 28 28 28 26 26 26 26 27 28 29 29 30 29 29 29
32 33 34 35 35 35 34 33 33 33 32 32 32 32 31 30 30 28 27 26 27 26 26 26 26 25 24 25 25 26 26 27 28 28 29 29 28 28
32 32 33 33 33 33 33 33 33 32 32 32 30 29 29 28 27 26 25 25 24 24 24 24 24 24 24 24 24 25 25 26 27 27 27 27 27 27
32 32 32 33 32 32 32 32 32 32 31 31 30 29 28 27 26 25 24 24 23 22 22 22 22 22 23 23 24 25 25 26 26 26 26 25 25 25

GEFSNE_500_meanwind_204.txt.gz
Wind_Speed
59 59 59 59 58 57 57 56 56 56 54 52 52 51 51 51 49 49 48 47 46 46 46 45 45 45 44 43 43 44 44 44 44 44 44 44 44 44
58 59 59 59 59 57 57 56 56 57 55 53 52 51 51 50 49 49 48 46 45 45 46 46 46 46 45 44 44 44 44 44 44 44 44 44 44 44
57 58 58 58 59 57 57 57 57 56 56 54 53 51 50 50 49 49 48 47 46 45 44 45 45 45 45 44 44 44 44 44 44 44 44 44 44 43
56 57 57 57 58 56 55 55 55 54 54 54 52 52 51 50 49 48 48 47 46 45 45 45 44 44 45 44 45 44 44 43 44 44 44 43 43 42
55 55 55 55 55 54 53 52 53 53 53 53 52 51 50 50 49 48 48 48 47 46 46 45 44 44 44 44 45 44 44 44 44 44 43 43 43 42
53 53 53 53 51 50 50 50 50 50 50 50 51 49 48 48 48 48 47 48 46 45 45 45 45 45 44 43 44 43 44 43 43 43 43 42 41 41
50 51 50 50 48 48 49 49 48 49 48 48 48 48 47 46 47 47 47 48 47 45 45 45 45 44 44 43 42 42 42 42 41 42 41 41 40 40
47 47 47 47 47 46 47 47 47 48 47 46 46 46 46 46 46 46 46 47 46 45 45 45 45 44 42 42 42 41 41 40 41 41 41 40 40 39
44 44 45 45 45 45 44 46 46 46 46 46 45 45 46 45 45 45 45 45 45 45 45 44 44 43 42 41 41 40 40 40 41 40 39 39 39 37
42 43 43 43 45 45 45 45 45 44 43 44 44 44 44 44 43 43 43 43 43 43 43 42 42 41 40 40 39 39 39 39 39 39 38 37 36 36
41 41 41 42 43 44 44 44 43 41 42 43 43 42 42 42 43 42 41 41 40 40 40 40 39 39 39 38 37 37 37 37 37 37 37 36 35 36
40 40 41 42 41 41 42 42 42 42 42 42 42 42 42 42 42 42 40 39 39 38 37 38 37 37 37 36 35 35 36 36 36 36 35 34 34 35
39 39 39 40 40 40 40 41 42 42 42 41 41 41 41 42 41 40 38 37 36 36 36 36 35 35 35 34 34 34 34 34 34 33 33 33 33 32
36 36 37 38 38 38 39 39 41 42 41 40 39 39 40 40 39 37 36 35 35 35 35 34 33 33 33 33 33 33 33 32 30 30 31 31 31 31
34 33 34 35 36 36 36 38 40 40 40 39 39 38 38 38 37 36 35 34 34 33 32 32 32 31 31 32 32 32 31 29 28 28 29 29 30 30
34 34 34 34 34 35 35 36 37 37 37 37 37 37 37 37 36 35 34 34 33 32 31 31 30 30 30 30 31 30 29 28 27 28 29 29 29 28
33 32 32 32 33 33 33 34 35 35 35 35 36 36 35 33 33 33 32 32 31 30 29 29 28 28 28 28 28 28 27 26 26 27 28 27 27 26
32 31 31 31 31 32 32 33 33 34 35 34 34 34 34 32 32 32 31 31 30 29 28 28 27 27 26 25 25 24 24 24 24 25 26 26 25 25
31 31 31 31 31 32 31 31 31 32 33 33 32 32 32 31 30 30 30 29 28 28 27 27 26 25 24 24 23 23 23 22 23 23 23 23 23 23
30 30 31 30 30 31 31 30 29 30 29 29 29 29 30 30 29 29 28 27 26 26 25 25 24 24 23 23 22 20 20 20 21 21 22 22 22 23
28 28 29 29 29 29 28 28 28 28 28 27 26 26 27 28 27 27 27 26 25 24 23 23 22 21 21 21 20 19 18 19 20 20 21 21 21 21
27 27 27 27 27 26 25 25 25 26 26 25 25 25 25 25 25 25 25 24 23 23 22 21 20 20 19 19 19 18 18 18 18 19 19 20 20 20
27 26 25 25 25 25 24 24 25 25 25 25 24 24 24 24 24 23 23 22 21 21 20 19 19 18 18 17 17 17 17 17 17 18 19 19 19 19

GEFSNE_500_meanwind_210.txt.gz
Wind_Speed
56 56 56 57 58 58 58 58 59 58 56 56 56 56 55 55 54 53 53 52 51 50 50 49 48 48 46 45 45 45 45 45 46 46 45 45 45 45
55 55 56 57 58 58 59 59 60 60 58 56 56 56 55 56 55 54 53 53 52 51 51 50 49 49 48 47 46 46 46 46 45 46 46 45 46 45
55 56 56 56 57 58 58 59 59 60 59 57 56 56 55 54 55 55 54 53 51 51 51 51 50 50 49 48 47 47 47 46 46 46 46 46 45 43
55 56 56 57 57 57 58 58 59 59 58 57 55 55 55 54 54 53 53 53 52 51 51 51 51 51 49 49 48 48 48 47 47 46 45 45 44 43
55 56 56 56 56 56 57 58 58 58 58 57 55 54 54 53 53 53 53 52 52 51 50 50 50 49 49 49 47 47 48 47 47 46 45 44 43 42
55 55 55 55 54 55 55 56 56 57 57 56 55 53 51 51 51 50 50 51 50 49 50 49 50 49 48 47 47 46 46 46 46 46 45 44 42 41
52 53 53 53 53 53 53 53 54 54 54 54 52 49 48 49 49 48 48 49 50 49 48 48 48 48 47 46 45 44 44 44 44 44 43 42 41 40
50 51 51 51 51 51 51 51 50 50 49 50 49 46 46 47 47 46 46 47 47 47 47 46 47 46 45 44 44 44 44 42 42 43 42 40 40 40
48 48 48 48 48 48 48 48 47 46 47 47 45 44 45 45 45 44 44 45 44 44 45 44 44 44 43 43 42 42 42 42 42 41 40 39 39 40
46 46 45 45 44 44 45 45 45 43 44 44 43 43 43 42 42 42 42 43 43 42 43 42 42 42 42 41 40 40 40 40 39 38 38 38 39 39
42 42 42 41 40 41 42 42 41 40 41 41 42 42 41 41 41 40 40 41 41 40 41 41 40 40 39 38 38 38 39 38 37 37 37 38 38 38
39 39 39 38 38 39 39 39 38 38 38 40 41 41 40 40 39 38 39 40 40 39 40 41 39 39 38 37 36 36 37 37 37 37 37 37 37 36
34 35 35 35 34 35 36 36 36 37 37 37 38 39 39 40 38 38 38 38 39 38 39 40 39 37 37 35 34 35 35 35 36 36 35 35 34 33
32 33 34 34 34 34 34 35 37 36 35 35 36 38 38 38 37 37 37 37 36 36 37 38 37 36 34 34 33 33 33 34 34 33 32 32 31 30
31 32 33 33 33 33 33 33 34 35 34 34 35 36 37 37 36 35 35 35 35 35 36 36 35 34 33 33 32 32 32 32 31 30 29 29 29 28
31 30 31 32 32 32 32 32 33 33 33 33 33 35 36 36 35 35 34 34 34 33 33 33 32 32 31 31 30 30 29 29 28 28 28 27 27 27
30 30 30 30 30 30 30 30 31 31 31 31 31 32 34 34 34 34 33 33 31 30 30 31 31 30 29 28 27 26 26 26 26 26 26 26 25 25
28 28 28 28 28 28 28 29 30 30 30 30 31 31 31 31 32 33 32 30 29 28 28 28 28 27 27 26 25 24 24 24 24 23 24 24 23 22
27 27 27 27 27 27 27 27 28 28 28 28 29 29 30 30 30 30 29 28 26 26 26 26 26 25 24 22 21 22 22 22 22 22 22 22 20 20
25 25 26 27 27 26 26 27 27 27 27 28 28 28 28 28 28 27 26 25 25 25 24 24 24 23 21 20 20 20 21 21 21 21 21 20 19 19
24 25 26 26 26 26 26 26 27 26 26 26 26 26 26 26 26 25 25 24 23 23 23 22 22 21 20 20 20 19 20 20 19 19 19 18 18 18
24 25 25 26 26 25 25 25 25 25 24 24 24 24 25 25 24 24 23 23 22 22 21 21 21 21 20 20 19 19 19 19 19 18 16 16 16 15
23 24 25 25 25 24 24 24 23 22 22 23 23 23 23 23 23 23 22 22 21 21 21 21 20 19 19 19 19 19 19 18 17 16 15 15 14 13

GEFSNE_500_meanwind_216.txt.gz
Wind_Speed
59 59 59 58 58 57 57 58 58 57 56 55 56 56 57 57 57 57 58 57 57 56 56 55 55 55 54 53 52 52 52 52 52 51 50 49 48 47
57 58 58 57 57 57 57 57 57 57 55 53 54 55 57 58 57 57 57 57 56 56 55 55 54 55 54 53 53 53 53 53 53 52 51 50 49 48
56 57 57 57 57 56 57 57 57 58 56 53 53 54 56 57 57 56 55 56 55 55 54 54 54 54 53 53 53 53 53 53 53 51 50 50 49 48
55 55 56 57 56 57 57 57 57 57 57 55 53 54 55 56 56 55 54 54 53 52 52 52 52 52 52 53 52 52 52 52 52 50 50 50 48 47
54 54 55 56 56 57 57 56 57 57 57 56 54 53 54 55 55 54 52 51 51 51 52 51 51 50 52 52 51 52 52 52 51 50 49 49 48 47
53 54 55 57 57 57 56 56 56 55 55 55 53 52 53 53 54 53 52 51 51 51 51 51 50 50 51 51 50 51 50 50 50 50 49 48 47 46
52 53 54 55 56 57 56 55 54 53 53 53 53 52 51 51 51 52 52 51 50 48 48 49 49 49 47 47 48 47 48 49 49 49 48 46 45 45
50 51 52 53 54 55 54 53 52 52 52 52 51 50 49 49 49 49 49 49 48 46 46 45 46 45 44 45 46 46 47 48 48 46 45 44 44 43
48 49 49 50 51 52 52 52 50 51 51 49 48 47 46 46 47 47 47 47 46 45 46 44 43 43 42 43 44 44 44 44 44 43 43 42 42 41
46 46 46 47 47 48 49 48 48 47 46 46 45 45 44 43 43 44 45 44 44 43 43 42 41 41 41 41 42 42 41 40 40 41 41 41 40 39
43 44 44 43 43 44 44 45 44 43 42 42 42 41 41 41 41 40 41 42 41 41 40 39 38 39 40 39 39 39 39 38 38 38 38 38 37 37
41 41 41 40 40 39 40 40 39 38 39 40 40 39 39 38 39 39 39 39 38 37 37 37 37 38 37 35 36 36 36 36 36 36 36 35 35 35
38 38 37 37 36 36 36 36 36 36 36 37 37 37 37 37 37 37 37 35 34 34 34 35 34 33 33 32 33 33 34 34 34 34 34 34 34 34
36 35 35 34 34 34 34 34 34 34 34 34 34 34 34 34 33 34 34 34 33 32 32 32 31 31 31 30 31 32 32 32 32 33 33 33 32 31
33 33 32 32 32 32 32 33 33 33 32 32 31 31 31 30 30 31 32 32 32 32 32 31 31 31 31 30 30 31 31 30 30 31 31 30 29 29
31 31 31 31 30 31 32 32 31 31 30 30 29 29 29 29 29 29 30 30 30 30 31 31 31 31 31 31 31 30 30 30 30 30 28 27 27 26
30 29 29 29 31 31 31 31 30 29 28 28 28 27 27 27 27 27 28 28 28 28 29 30 30 30 30 30 29 29 29 29 28 28 27 26 25 25
29 28 28 29 29 29 29 28 28 27 27 26 26 25 24 24 25 26 26 26 26 27 27 27 27 27 27 27 27 28 28 27 26 25 25 24 23 23
26 25 26 26 26 25 25 25 25 25 25 25 25 24 24 24 24 24 25 26 26 25 25 25 25 25 26 25 25 25 25 25 24 23 23 22 21 20
23 22 22 22 23 23 23 23 23 23 23 23 23 24 24 23 24 24 24 23 23 23 23 24 24 24 25 24 23 22 21 21 21 20 20 19 19 18
20 20 20 20 21 21 21 21 21 21 21 21 22 23 23 23 23 22 22 22 21 21 21 21 22 23 22 21 19 19 19 20 19 19 18 18 17 16
20 20 20 20 20 20 20 20 20 20 20 20 21 21 21 20 20 20 20 20 20 20 19 20 21 21 20 19 18 18 18 18 17 17 16 15 14 13
19 19 19 18 19 19 20 20 20 20 20 19 19 19 20 19 19 19 19 18 18 18 19 19 19 18 18 17 17 17 17 16 15 15 14 14 13 12

GEFSNE_500_meanwind_222.txt.gz
Wind_Speed
59 59 59 59 59 59 60 60 60 60 59 57 57 57 58 59 59 59 59 59 60 60 60 60 59 59 59 58 57 57 56 55 54 54 53 52 52 51
58 59 58 58 58 58 58 58 58 59 58 55 56 56 56 56 58 59 60 60 59 59 60 60 59 58 58 58 57 57 56 55 55 55 55 54 53 51
57 56 56 56 57 57 57 57 57 58 58 55 56 56 56 57 57 58 59 60 58 57 58 58 58 58 58 57 57 57 56 55 56 56 55 55 55 53
55 55 55 56 56 56 56 57 57 57 58 57 56 56 56 57 57 57 58 58 56 56 56 57 56 56 56 56 56 56 55 55 55 55 55 55 55 54
54 54 54 55 55 55 55 56 57 57 58 57 55 55 55 55 55 55 56 56 55 55 55 55 55 55 55 55 55 55 55 56 55 54 54 56 55 53
54 54 54 54 54 55 56 56 57 57 57 56 55 54 54 54 55 54 54 53 54 54 54 55 54 53 53 53 54 54 54 54 54 54 53 53 53 52
53 53 54 54 54 55 55 55 56 56 55 55 54 53 54 53 53 53 52 52 52 52 52 52 51 51 51 52 53 53 53 52 52 52 52 52 52 51
52 52 53 53 53 54 54 54 53 53 53 53 52 52 52 51 51 52 51 51 51 50 51 49 49 48 49 50 51 51 51 50 50 49 49 49 48 48
51 51 51 51 52 52 52 52 52 52 53 52 51 50 50 49 49 49 49 49 49 49 49 47 45 44 45 45 46 46 47 46 46 45 45 45 45 45
51 51 51 51 51 51 51 51 50 50 50 50 49 47 47 47 47 46 47 47 46 45 44 43 42 42 41 42 43 43 44 44 44 42 42 42 42 41
51 51 51 50 50 50 50 50 49 48 47 47 46 45 43 43 43 42 42 42 41 40 40 41 39 39 39 39 39 38 39 41 41 40 40 39 39 39
49 50 49 48 48 48 48 48 46 45 44 44 43 41 41 40 39 39 39 38 37 37 37 37 37 37 36 35 35 35 36 36 36 36 35 35 35 36
46 46 45 46 46 46 46 45 43 42 40 40 39 38 39 38 38 37 36 35 34 34 34 34 34 34 33 32 31 32 32 32 33 32 32 32 32 33
43 43 42 43 43 43 42 40 39 37 36 36 36 36 36 35 35 34 33 32 31 30 31 31 31 31 31 29 28 29 29 29 30 29 30 30 31 31
41 40 40 40 38 37 36 35 35 34 34 33 33 33 33 32 32 31 30 30 29 29 29 29 28 27 27 27 26 26 26 26 27 27 27 28 27 27
39 38 37 35 34 33 32 32 31 31 31 30 30 30 29 28 27 27 28 28 27 27 26 26 26 26 25 25 25 24 25 25 25 25 25 25 25 24
36 35 33 32 32 30 29 29 29 28 28 28 28 28 27 27 26 26 26 26 25 24 24 25 24 24 23 24 22 21 22 22 23 24 23 22 21 21
34 33 32 31 30 28 27 27 26 26 25 25 26 26 27 27 27 26 26 25 24 24 23 23 23 22 22 22 21 20 20 20 21 21 21 20 20 20
31 30 29 28 27 26 25 24 24 24 23 23 24 24 25 25 25 25 24 24 23 23 23 23 22 22 22 21 21 19 18 19 19 19 19 19 19 19
28 27 25 24 24 23 23 23 23 22 21 21 22 22 23 23 22 22 21 21 22 24 24 23 22 21 20 19 19 18 18 18 18 18 18 18 18 18
25 23 22 21 20 20 20 20 20 20 19 19 19 20 20 20 19 19 20 20 21 21 21 20 20 20 20 19 19 19 19 18 18 17 17 16 16 16
22 21 20 19 18 18 18 18 18 17 17 17 17 18 18 18 18 18 18 18 19 19 19 18 18 19 19 19 18 18 18 18 17 16 16 16 15 14
20 19 18 17 16 16 16 15 15 16 15 15 16 17 17 17 17 17 17 17 18 18 18 19 18 18 17 17 17 17 18 17 17 16 16 16 15 14

GEFSNE_500_meanwind_228.txt.gz
Wind_Speed
52 53 54 55 55 56 57 58 59 58 57 56 55 55 56 57 57 58 57 57 57 56 56 56 57 58 59 59 58 57 56 55 55 55 55 54 53 53
53 55 55 56 57 57 57 58 58 59 58 56 55 55 56 56 57 57 57 57 56 56 56 56 57 58 58 58 58 57 56 55 55 55 54 54 54 55
55 56 56 57 57 57 57 57 58 59 59 56 55 55 56 57 57 57 57 57 56 56 57 57 58 58 58 58 57 57 56 56 55 55 55 55 55 55
56 57 57 57 58 58 58 58 58 58 58 57 55 56 57 57 57 56 56 57 56 56 56 56 57 57 57 57 56 55 54 54 55 55 55 55 55 54
57 57 57 57 58 58 58 57 57 57 58 58 57 56 55 55 56 56 56 54 55 55 54 54 55 55 54 54 54 53 53 53 54 54 55 55 54 53
56 56 56 56 57 57 57 57 57 57 57 57 57 55 54 54 55 55 53 52 52 52 52 52 52 52 52 52 53 53 53 53 53 54 54 54 54 53
55 55 55 55 56 56 56 56 56 56 56 55 55 54 52 53 53 53 53 51 50 49 50 50 50 49 49 50 51 51 51 51 52 52 53 53 53 53
54 54 54 54 55 55 55 55 55 55 54 54 54 53 52 52 52 51 51 49 48 47 48 47 47 47 46 46 46 47 47 48 48 49 50 50 50 50
53 53 54 54 54 54 53 52 53 54 54 54 53 52 52 51 51 49 48 47 46 45 45 44 44 44 43 43 43 43 44 44 44 45 47 46 46 46
52 52 52 51 52 52 51 51 51 52 52 52 52 51 51 49 48 46 45 44 43 42 42 40 38 39 41 40 40 41 41 42 42 43 43 43 42 42
50 50 50 50 51 52 52 51 50 51 51 51 50 49 48 47 46 45 44 43 41 39 39 37 36 37 37 37 38 38 38 38 39 40 41 40 39 38
48 48 49 49 49 49 50 50 50 50 49 49 48 47 45 43 42 42 41 40 38 37 36 35 34 34 33 33 34 34 35 35 35 35 35 34 34 35
46 45 45 45 45 46 47 48 48 48 47 46 44 42 40 39 38 38 38 37 36 34 33 33 32 31 30 29 29 30 30 30 30 30 29 29 29 30
42 42 43 43 43 44 44 44 45 45 43 41 40 38 37 37 36 36 35 34 33 31 30 29 28 27 26 25 25 24 25 26 26 26 26 25 26 27
41 42 42 43 43 43 43 43 43 41 40 39 37 36 36 36 34 33 32 30 29 29 28 27 26 25 25 24 23 22 22 23 23 24 23 22 23 24
41 42 43 43 43 42 42 42 41 39 38 38 36 34 33 32 30 29 28 28 27 26 26 25 24 24 23 23 22 21 21 21 20 20 20 20 20 21
43 43 43 42 41 41 40 38 38 38 36 35 33 31 30 29 27 26 25 25 24 23 23 23 22 21 20 20 20 19 19 19 18 18 18 17 17 17
41 40 39 39 38 37 36 36 35 35 33 32 31 29 27 26 25 24 23 23 22 21 21 21 20 20 19 18 17 17 17 16 15 14 14 14 14 14
38 37 36 35 35 34 33 33 32 32 30 28 27 25 24 23 22 22 22 21 20 19 19 18 18 17 17 16 15 14 13 12 12 12 12 13 12 13
35 34 33 32 31 30 30 29 29 28 26 25 23 22 21 20 19 19 18 18 16 15 15 15 14 14 14 13 13 13 13 12 12 12 12 12 11 11
32 31 30 30 29 28 27 26 25 23 22 20 20 19 18 17 16 16 15 14 14 13 13 13 12 13 13 12 12 12 12 12 11 12 12 12 11 11
29 28 27 27 26 25 24 23 21 19 18 17 16 16 16 15 14 13 13 13 13 13 12 12 12 12 12 11 11 11 11 11 10 10 10 10 11 10
26 26 25 24 23 23 22 20 19 17 16 15 14 14 13 13 12 12 12 12 12 12 12 11 11 11 11 11 11 11 11 11 10 9 9 9 9 9

GEFSNE_500_meanwind_234.txt.gz
Wind_Speed
48 49 50 51 52 53 53 55 56 55 54 54 54 54 56 56 56 57 58 58 59 59 60 59 59 59 60 61 61 61 60 60 59 58 58 57 57 57
50 51 52 53 53 54 55 56 57 58 57 55 55 55 55 56 56 57 57 58 58 58 58 59 59 60 60 60 61 61 60 59 59 58 56 56 55 55
52 53 54 55 55 57 57 57 58 58 58 56 55 55 56 56 56 56 56 57 57 56 57 58 59 59 59 59 59 59 59 58 57 57 56 56 55 56
54 56 56 57 58 58 58 58 58 58 58 57 55 55 55 55 55 55 55 55 55 56 56 57 57 58 58 58 58 57 56 55 55 55 55 55 55 56
56 57 58 58 58 59 58 58 57 57 57 57 55 54 54 53 54 53 54 54 55 55 56 56 56 56 56 57 56 55 55 54 53 53 54 54 55 56
57 58 58 58 58 57 57 56 55 55 54 55 54 52 52 52 53 53 54 54 55 55 54 54 54 53 53 53 53 53 53 53 54 53 53 54 55 55
57 57 57 56 56 55 54 53 53 52 52 52 52 52 52 52 53 54 54 54 53 54 53 52 52 51 51 51 51 51 51 51 52 51 51 52 53 53
56 55 54 53 52 52 51 51 51 51 51 51 51 51 51 52 52 52 52 52 51 51 51 50 50 49 48 49 49 49 48 49 49 49 49 50 49 50
54 53 52 51 50 50 50 50 50 51 51 51 51 51 51 50 50 51 51 51 50 49 49 47 46 46 46 46 46 46 46 45 44 45 45 46 47 48
51 50 49 48 48 49 49 49 49 49 49 50 50 49 49 49 50 50 50 49 47 47 47 45 44 43 43 43 42 42 42 41 40 41 42 43 43 44
49 48 48 47 46 47 47 47 47 47 48 48 49 49 49 49 49 49 48 47 45 44 44 43 42 42 40 39 39 39 38 37 37 37 38 39 39 39
47 46 45 44 44 45 45 46 45 46 47 47 48 48 48 48 47 47 47 45 44 41 41 41 40 40 38 36 36 35 36 36 36 36 35 35 35 34
44 43 43 43 43 44 44 45 45 46 46 46 46 46 46 46 45 45 44 42 41 39 38 38 38 37 36 34 33 33 34 34 33 32 32 32 32 31
41 41 41 41 42 42 43 43 44 45 45 44 44 44 44 43 43 42 41 39 38 37 36 35 35 34 32 31 30 31 32 32 30 29 29 29 29 29
40 41 41 41 41 42 43 43 44 44 44 44 43 42 41 41 40 39 38 37 36 35 34 33 32 31 29 28 28 28 27 27 28 27 27 26 26 26
40 40 40 41 41 42 43 43 44 44 43 42 41 40 38 38 37 36 35 33 32 31 31 30 30 29 27 26 26 24 23 23 23 23 22 22 22 23
40 40 41 41 42 42 43 43 43 42 41 40 39 38 37 36 35 34 32 31 30 29 28 27 27 26 25 23 21 20 20 19 19 19 19 18 19 19
39 40 41 41 41 41 41 41 39 39 38 38 37 36 35 34 33 31 30 29 28 26 25 24 23 22 20 18 18 17 17 16 16 16 16 16 16 16
38 38 39 39 40 39 39 38 37 36 36 35 34 33 32 31 30 28 27 26 25 24 22 21 19 17 16 16 15 15 14 14 15 15 15 15 14 13
38 38 38 38 37 37 36 35 35 34 33 32 31 30 30 29 27 26 24 23 22 20 18 16 15 14 13 13 13 12 13 13 14 14 13 13 12 12
37 37 36 36 35 34 34 33 32 31 29 28 28 27 26 25 24 22 20 19 17 15 14 12 12 12 12 12 11 11 11 12 12 12 11 11 11 11
35 34 33 33 32 31 30 29 28 27 26 25 24 23 22 21 19 17 16 14 12 11 11 11 12 12 11 11 10 10 10 10 11 10 10 9 9 9
33 32 31 29 28 27 26 25 25 24 23 22 21 20 19 17 16 14 13 12 10 10 11 11 11 11 10 10 10 9 9 9 9 9 8 7 7 8

GEFSNE_500_meanwind_240.txt.gz
Wind_Speed
46 46 47 48 48 49 49 50 52 53 52 52 52 53 53 54 55 56 55 54 54 55 55 55 55 56 56 56 56 56 56 56 56 57 57 57 56 56
48 48 49 49 50 50 51 53 54 56 56 54 54 53 53 53 54 54 54 53 53 53 53 53 54 55 56 55 55 55 55 55 55 56 57 57 57 56
48 48 49 50 51 52 53 55 56 57 57 55 55 54 53 52 52 52 52 52 52 52 52 52 53 53 54 54 54 54 55 56 56 56 56 57 56 56
48 49 50 51 52 53 55 56 57 57 57 56 55 53 51 51 51 51 52 52 51 51 51 52 52 52 52 52 53 53 54 55 55 55 55 55 55 55
49 50 52 53 54 55 56 57 57 57 56 56 54 51 51 51 51 51 51 52 52 52 51 51 51 51 51 51 51 52 53 53 54 53 53 52 52 52
51 52 52 54 55 56 57 56 56 55 54 54 52 50 50 50 50 51 51 51 51 51 51 50 50 50 51 50 50 51 52 52 51 51 51 51 51 50
52 53 54 55 56 56 56 55 54 53 52 51 50 49 49 49 50 50 51 50 51 51 50 50 49 49 50 50 50 51 51 50 50 50 50 49 49 49
54 54 55 55 55 55 53 52 51 51 51 50 50 49 49 49 49 49 50 49 49 49 49 48 49 49 49 50 50 50 50 49 49 48 47 47 47 47
55 55 55 54 53 51 50 50 50 50 50 50 49 49 48 49 49 48 48 48 48 48 48 47 48 48 48 48 49 49 48 48 47 46 45 44 44 44
55 54 53 52 51 50 49 48 49 49 49 49 48 48 48 48 48 49 49 48 47 48 49 48 47 46 45 46 46 46 45 45 44 43 42 41 41 41
54 53 51 50 49 48 48 47 48 48 48 48 48 48 49 49 48 48 48 48 47 47 48 47 45 44 43 43 43 43 42 41 41 40 39 39 39 38
52 51 49 48 47 47 48 48 48 48 48 48 48 48 48 48 48 48 47 47 46 45 45 45 43 43 41 40 40 40 39 38 37 37 36 36 36 35
50 48 47 47 47 48 48 48 48 48 48 48 47 46 46 46 46 46 46 45 45 44 43 43 41 40 40 38 37 36 36 35 35 34 34 33 32 31
47 46 46 46 46 46 46 47 47 47 47 47 46 45 45 45 44 44 43 43 43 43 41 40 39 38 37 35 34 33 32 31 31 30 29 28 28 28
45 44 44 44 44 44 44 45 45 45 45 45 44 44 44 44 43 42 42 41 41 41 40 38 37 36 35 33 31 30 29 27 27 26 25 24 25 24
43 42 42 41 42 42 43 43 43 43 43 43 42 42 42 41 40 40 40 39 39 38 37 36 35 34 32 31 29 28 27 26 25 25 23 22 22 22
41 41 41 41 41 41 42 42 42 42 41 41 40 40 40 39 39 38 38 37 36 35 34 33 33 32 31 30 28 27 25 24 24 23 22 21 21 21
40 40 40 40 40 40 40 41 41 40 40 40 40 39 39 38 37 36 35 35 35 33 32 31 30 29 28 28 27 25 25 23 23 22 21 21 20 19
39 39 39 39 39 39 40 39 39 39 39 39 39 38 37 36 35 34 33 33 31 30 29 28 27 26 25 24 23 23 22 21 21 20 20 19 17 15
38 38 38 38 38 39 38 38 37 38 38 37 37 36 35 34 34 32 31 28 27 26 25 24 23 23 23 22 21 20 20 19 18 18 17 15 14 13
35 36 36 36 37 37 37 36 36 36 35 35 34 33 32 31 30 28 26 24 24 23 22 21 21 21 20 19 18 17 17 16 16 14 13 12 11 10
35 35 35 35 35 36 36 35 35 34 33 32 31 30 28 27 26 24 23 22 22 21 20 19 19 19 18 17 15 14 13 12 12 11 10 9 8 7
34 34 34 34 34 34 34 34 33 32 31 30 29 27 25 24 22 22 21 21 20 19 18 17 17 16 15 14 12 11 10 9 8 7 7 6 6 5

GEFSNE_500_meanwind_246.txt.gz
Wind_Speed
45 45 45 45 45 45 46 46 47 47 47 48 49 50 51 51 51 51 51 50 49 49 48 46 47 47 48 48 48 48 50 51 52 53 54 54 55 55
45 45 45 45 45 45 46 47 48 49 49 49 50 51 50 50 50 50 49 49 48 48 48 48 48 49 49 49 49 50 50 51 52 53 54 54 55 55
45 45 45 46 46 46 47 48 49 50 51 51 51 51 50 50 50 49 49 49 49 49 49 49 49 50 50 49 50 50 50 50 51 52 52 53 54 55
45 45 46 46 47 47 48 49 50 51 52 52 51 50 50 49 49 49 49 49 49 50 50 49 50 51 51 51 50 50 50 50 51 52 52 53 53 54
46 47 47 48 48 49 50 51 52 52 53 52 50 50 50 50 49 49 49 49 50 51 51 51 51 51 51 51 50 50 50 51 51 52 52 53 52 52
46 47 48 49 49 50 51 52 53 53 52 51 50 49 49 50 50 50 51 51 51 51 51 51 51 50 50 50 50 51 51 51 51 51 51 51 50 50
47 48 49 50 51 51 52 52 53 52 51 50 49 48 48 49 50 51 51 51 51 51 50 49 49 49 49 49 50 51 51 51 51 50 49 49 48 48
49 49 50 51 52 53 53 53 53 52 51 49 48 48 49 49 50 50 51 51 50 50 50 49 49 49 49 49 50 50 50 50 49 48 47 47 46 46
51 51 52 53 54 54 54 53 52 51 50 50 49 49 49 50 50 50 50 51 50 49 49 48 49 49 48 48 48 48 48 47 46 45 45 44 43 43
53 54 54 55 55 55 54 52 50 50 50 50 50 50 50 51 50 50 50 49 48 48 48 48 48 48 48 47 47 47 45 44 43 43 43 42 42 43
54 54 55 55 55 54 52 50 50 50 50 51 50 50 50 50 50 49 49 49 47 46 47 47 47 46 46 45 45 44 43 43 42 42 41 41 41 41
54 55 55 54 53 53 51 49 49 49 50 50 50 50 50 50 50 49 49 48 47 46 46 47 46 45 43 42 42 43 42 41 40 39 39 39 39 38
54 54 53 52 52 51 50 49 49 50 49 49 49 50 49 49 49 48 47 47 46 46 45 46 45 44 43 42 40 40 40 39 38 37 37 37 37 36
52 52 51 51 50 49 49 49 49 49 49 48 48 48 47 46 46 45 45 45 45 45 45 44 43 42 41 40 39 39 38 37 36 35 35 35 34 34
50 50 50 49 47 47 47 48 48 47 47 46 46 45 44 43 43 43 43 43 43 44 43 42 41 40 40 39 38 37 36 35 35 34 33 33 32 32
49 48 47 46 46 46 45 45 45 45 44 44 43 42 41 41 42 41 41 41 42 41 41 41 40 40 39 38 37 35 34 34 33 32 31 31 30 29
47 46 45 44 44 44 44 43 43 42 42 41 41 40 40 40 40 40 40 41 41 40 39 38 38 38 37 36 34 33 32 32 30 29 29 28 28 27
45 44 43 42 42 42 42 41 41 41 41 41 40 40 40 40 40 39 39 39 37 36 36 35 34 33 33 32 32 31 31 29 28 27 26 26 25 24
44 43 42 42 41 41 41 40 40 40 40 40 39 39 39 39 38 38 38 37 35 34 33 32 31 31 31 30 29 29 28 26 25 24 23 23 22 21
42 42 41 40 40 39 39 38 38 38 39 38 38 38 37 37 36 36 35 34 33 31 30 30 29 29 28 26 24 25 25 23 22 20 20 20 19 18
40 39 39 38 38 37 36 36 36 36 37 36 36 36 36 35 34 33 32 31 30 29 28 28 27 27 25 24 22 22 21 20 19 18 18 17 15 13
38 37 37 36 36 35 34 34 35 35 35 34 34 34 33 32 32 30 29 28 28 27 27 26 25 25 24 22 21 19 18 18 17 16 16 15 12 9
35 35 35 34 34 33 34 34 33 33 33 32 32 32 31 30 29 27 27 26 25 25 24 23 23 23 21 19 18 17 17 16 14 13 13 12 10 8

GEFSNE_500_meanwind_252.txt.gz
Wind_Speed
44 45 45 44 44 44 44 44 44 43 42 42 43 44 45 45 46 47 48 48 49 49 49 48 48 48 48 47 47 48 48 49 49 49 49 49 50 50
46 46 45 45 44 44 44 44 44 45 43 43 44 45 46 46 47 48 49 50 50 49 48 48 48 48 48 48 49 50 50 50 49 50 49 49 49 50
47 46 45 45 45 45 45 45 45 46 46 45 46 46 47 47 48 49 50 49 49 48 48 47 47 48 49 49 50 51 51 51 50 49 49 49 50 50
46 46 46 45 45 45 46 46 46 47 47 47 47 48 49 49 50 50 49 48 48 47 47 48 48 49 50 51 51 51 51 51 51 51 51 51 51 52
46 46 46 46 45 46 46 47 47 48 49 49 49 50 51 51 51 50 49 48 48 48 49 49 50 50 50 50 51 51 51 51 51 51 52 51 52 52
47 46 46 47 47 47 48 48 48 49 50 51 51 52 52 51 50 49 49 49 49 49 49 50 50 50 50 50 50 50 49 49 50 51 51 51 52 52
47 47 47 48 48 48 49 49 50 51 52 52 53 52 51 50 50 50 49 48 48 49 49 49 49 48 49 49 49 48 48 48 48 48 49 49 50 50
48 48 48 49 50 50 50 51 52 53 53 54 53 52 51 50 50 49 49 48 48 48 48 48 48 48 48 48 48 48 48 48 48 48 48 49 48 47
49 49 50 51 52 52 52 53 54 54 54 54 52 51 50 50 50 49 49 48 48 48 47 46 47 47 47 48 48 48 47 47 48 49 48 48 47 46
50 51 51 52 53 54 54 54 55 54 53 52 51 50 50 50 49 48 48 48 48 48 47 46 46 47 47 47 48 47 47 48 48 48 47 46 45 44
50 51 52 53 54 55 55 54 54 52 52 51 50 50 50 49 49 49 49 48 47 46 46 46 46 45 46 46 46 47 47 48 48 47 47 46 44 43
51 52 53 55 55 54 53 53 52 51 51 49 50 50 50 50 49 49 49 47 46 45 45 46 45 45 44 45 45 46 46 46 46 46 45 43 41 40
52 53 54 55 54 53 52 52 51 50 50 49 50 50 50 50 49 49 48 47 46 45 45 45 45 45 45 44 44 45 45 45 44 44 42 40 39 38
52 53 53 53 52 52 51 50 50 50 49 49 49 49 49 48 48 47 46 45 45 45 44 44 44 44 44 44 44 44 44 43 42 41 39 38 37 37
52 52 52 51 50 49 48 48 48 48 47 47 47 47 47 46 45 44 43 43 43 43 43 44 44 44 44 44 43 43 42 41 40 38 37 36 35 34
50 49 48 47 46 45 45 46 46 46 45 45 45 44 43 43 42 42 41 41 41 41 42 42 42 42 42 42 42 41 40 39 37 36 34 33 33 32
47 47 46 45 45 45 45 45 44 44 44 44 43 42 41 41 40 40 40 40 39 39 39 40 40 41 40 41 41 40 38 35 34 32 32 31 30 29
46 45 45 45 45 44 44 43 43 43 43 42 41 40 40 40 39 39 39 39 39 39 39 39 39 39 39 40 40 37 35 33 31 30 29 29 27 26
46 46 45 45 44 43 43 42 42 42 42 41 40 39 39 39 38 37 37 37 38 38 38 38 38 38 37 35 35 35 33 31 30 29 28 27 25 24
45 45 45 44 43 42 41 41 41 41 40 39 39 38 38 37 36 36 36 36 36 36 36 36 36 36 35 34 32 32 31 30 28 26 25 25 23 21
43 43 42 42 41 41 40 40 40 39 38 38 37 37 36 36 35 34 34 34 34 34 34 34 35 35 33 31 29 29 29 28 27 25 24 23 20 18
41 40 40 39 39 38 38 38 37 37 36 36 36 35 35 34 33 32 32 32 32 32 32 33 33 33 31 29 27 27 26 25 25 23 22 20 18 16
38 37 37 37 37 36 36 35 36 35 35 34 34 33 32 31 31 31 31 31 31 31 31 31 30 29 28 26 25 24 23 22 21 20 18 17 17 15

GEFSNE_500_meanwind_258.txt.gz
Wind_Speed
43 43 43 44 45 44 44 44 44 42 41 41 42 43 44 44 44 44 44 45 45 45 46 47 48 48 47 47 46 45 46 47 47 47 47 48 48 48
45 45 45 46 46 45 45 45 45 44 44 43 44 44 45 45 45 45 46 46 47 47 48 48 48 48 46 45 45 46 46 47 48 48 49 49 49 49
45 45 45 46 46 46 45 45 46 46 46 45 46 46 46 47 47 47 48 48 48 49 49 48 48 46 46 46 47 47 48 48 49 49 49 50 49 48
45 45 45 46 46 46 45 46 46 47 47 47 46 47 48 48 47 48 48 48 49 49 49 48 47 46 47 48 48 49 49 49 49 50 50 49 48 48
46 46 46 46 46 46 46 47 48 48 48 48 48 48 48 48 48 48 48 49 49 48 48 47 47 47 48 48 49 49 50 50 49 49 48 48 48 48
46 46 47 47 46 47 47 48 48 48 49 49 48 48 48 48 48 48 48 48 48 48 48 48 48 48 49 49 49 49 49 48 48 48 47 47 47 47
47 47 47 47 47 47 48 48 48 48 48 49 48 48 48 48 48 48 48 48 47 47 48 48 48 48 49 49 49 49 48 47 47 47 47 47 47 48
49 49 48 48 48 48 48 48 49 48 49 49 49 48 48 49 49 48 48 48 47 47 48 48 47 48 48 48 48 47 47 48 48 47 47 47 48 48
49 49 48 48 49 48 48 48 48 49 49 49 49 49 50 50 49 48 48 48 48 48 47 47 47 47 47 47 47 47 47 48 48 48 47 47 48 48
49 49 48 48 49 48 48 48 49 49 49 50 50 50 50 50 49 49 49 48 48 48 47 47 47 47 46 47 47 47 47 47 47 48 48 48 47 46
50 49 49 49 49 49 49 49 49 49 50 50 50 50 50 50 49 49 49 49 48 48 48 47 46 46 46 46 47 47 47 47 47 47 47 46 45 45
50 49 49 49 49 49 50 49 50 50 50 50 50 49 50 50 50 50 49 49 48 47 47 47 47 46 45 46 47 47 47 47 47 46 45 44 44 44
50 49 49 49 49 50 50 50 50 50 50 50 49 49 50 50 49 49 49 48 47 46 47 47 46 46 46 46 45 46 46 46 46 45 44 44 43 42
49 49 50 50 51 51 51 50 50 50 50 49 49 49 49 48 48 48 48 47 46 46 46 46 45 45 45 44 44 44 44 44 44 44 42 41 41 41
50 50 50 50 50 50 50 50 49 49 48 48 48 48 47 46 46 46 45 45 44 44 44 44 43 43 43 43 42 42 42 42 42 41 39 39 39 39
48 49 49 48 48 48 48 48 47 47 47 47 47 47 46 45 45 44 42 42 42 42 43 42 42 42 42 42 42 42 42 41 40 39 38 37 37 37
47 47 47 46 46 46 46 46 47 47 46 46 45 45 44 43 42 40 40 40 40 40 40 40 40 40 41 42 41 41 41 40 38 37 37 36 36 35
47 46 46 46 46 47 47 47 47 46 45 45 44 43 41 40 39 39 40 40 39 39 39 39 39 39 40 41 41 40 39 38 37 36 36 34 33 33
47 46 46 46 46 46 46 46 45 45 44 44 43 41 40 39 39 39 39 39 39 39 38 38 39 38 38 38 38 38 36 35 35 34 33 33 32 30
47 46 46 46 46 45 45 44 44 44 43 42 41 40 39 39 38 38 38 38 38 38 37 37 37 37 37 36 35 35 35 34 33 32 32 31 30 29
46 46 46 45 44 43 43 42 42 42 41 40 40 39 38 38 37 37 37 37 37 36 35 35 36 36 36 35 34 33 33 33 32 31 30 29 27 26
44 44 44 44 42 42 41 41 40 39 39 38 37 36 36 36 36 36 36 36 35 34 34 34 34 34 34 33 32 32 31 31 31 30 30 28 25 23
41 41 41 41 41 40 40 39 38 37 36 36 35 34 34 35 34 34 34 33 33 32 32 32 32 31 31 30 30 29 28 27 27 26 26 25 23 21